2016 Cux-Wetter.de -Die Nutzung der Wetterdaten nur mit ausdrcklicher Genehmigung
Wetterdaten: Freitag, 29.04.2016
Datum Zeit Temp. A. Feuchte A. Luftdruck Regen Wind Richtung Richtung Sonnenschein Solar Taupunkt Windchill Windben
29.04.2016 00:00 5,0 C 86 % 1012,4 hPa 0,0 l/m 7,7 km/h (2 Bft) S-SW 198 0 min 0 W/m 2,9 C 3,9 C 14,5 km/h (3 Bft)
29.04.2016 00:03 4,9 C 86 % 1012,4 hPa 0,0 l/m 6,4 km/h (2 Bft) S-SW 211 0 min 0 W/m 2,8 C 4,9 C 9,7 km/h (2 Bft)
29.04.2016 00:06 4,9 C 87 % 1012,5 hPa 0,0 l/m 6,9 km/h (2 Bft) W-SW 242 0 min 0 W/m 2,9 C 4,5 C 12,9 km/h (3 Bft)
29.04.2016 00:09 4,9 C 87 % 1012,4 hPa 0,0 l/m 7,8 km/h (2 Bft) S 186 0 min 0 W/m 2,9 C 3,7 C 12,9 km/h (3 Bft)
29.04.2016 00:12 4,9 C 87 % 1012,5 hPa 0,0 l/m 6,8 km/h (2 Bft) SW 233 0 min 0 W/m 2,9 C 4,6 C 11,3 km/h (2 Bft)
29.04.2016 00:15 4,9 C 87 % 1012,5 hPa 0,0 l/m 7,4 km/h (2 Bft) S 176 0 min 0 W/m 2,9 C 4,0 C 14,5 km/h (3 Bft)
29.04.2016 00:18 4,9 C 87 % 1012,5 hPa 0,0 l/m 6,9 km/h (2 Bft) S-SO 168 0 min 0 W/m 2,9 C 4,5 C 16,1 km/h (3 Bft)
29.04.2016 00:21 4,9 C 87 % 1012,5 hPa 0,0 l/m 7,4 km/h (2 Bft) S-SO 165 0 min 0 W/m 2,9 C 4,0 C 11,3 km/h (2 Bft)
29.04.2016 00:24 4,9 C 88 % 1012,5 hPa 0,0 l/m 7,2 km/h (2 Bft) S-SO 157 0 min 0 W/m 3,1 C 4,2 C 12,9 km/h (3 Bft)
29.04.2016 00:27 4,9 C 88 % 1012,5 hPa 0,0 l/m 7,1 km/h (2 Bft) S 173 0 min 0 W/m 3,1 C 4,3 C 12,9 km/h (3 Bft)
29.04.2016 00:30 4,8 C 88 % 1012,6 hPa 0,0 l/m 5,6 km/h (2 Bft) S 174 0 min 0 W/m 3,0 C 4,8 C 11,3 km/h (2 Bft)
29.04.2016 00:33 4,8 C 88 % 1012,5 hPa 0,0 l/m 5,9 km/h (2 Bft) S-SW 194 0 min 0 W/m 3,0 C 4,8 C 11,3 km/h (2 Bft)
29.04.2016 00:36 4,7 C 88 % 1012,5 hPa 0,0 l/m 6,4 km/h (2 Bft) W-SW 242 0 min 0 W/m 2,9 C 4,7 C 11,3 km/h (2 Bft)
29.04.2016 00:39 4,6 C 88 % 1012,5 hPa 0,0 l/m 4,9 km/h (1 Bft) S-SW 196 0 min 0 W/m 2,8 C 4,6 C 8,0 km/h (2 Bft)
29.04.2016 00:42 4,5 C 88 % 1012,4 hPa 0,0 l/m 4,9 km/h (1 Bft) S 176 0 min 0 W/m 2,7 C 4,5 C 8,0 km/h (2 Bft)
29.04.2016 00:45 4,4 C 89 % 1012,4 hPa 0,0 l/m 5,0 km/h (1 Bft) S 182 0 min 0 W/m 2,7 C 4,4 C 9,7 km/h (2 Bft)
29.04.2016 00:48 4,3 C 89 % 1012,4 hPa 0,0 l/m 6,2 km/h (2 Bft) S 171 0 min 0 W/m 2,7 C 4,3 C 9,7 km/h (2 Bft)
29.04.2016 00:51 4,2 C 89 % 1012,4 hPa 0,0 l/m 4,9 km/h (1 Bft) S 179 0 min 0 W/m 2,6 C 4,2 C 9,7 km/h (2 Bft)
29.04.2016 00:54 4,2 C 90 % 1012,4 hPa 0,0 l/m 5,4 km/h (2 Bft) S-SO 161 0 min 0 W/m 2,7 C 4,2 C 9,7 km/h (2 Bft)
29.04.2016 00:57 4,2 C 90 % 1012,4 hPa 0,0 l/m 5,6 km/h (2 Bft) S-SO 164 0 min 0 W/m 2,7 C 4,2 C 9,7 km/h (2 Bft)
29.04.2016 01:00 4,2 C 90 % 1012,4 hPa 0,0 l/m 6,5 km/h (2 Bft) S 169 0 min 0 W/m 2,7 C 4,1 C 9,7 km/h (2 Bft)
29.04.2016 01:03 4,2 C 90 % 1012,4 hPa 0,0 l/m 5,8 km/h (2 Bft) S 175 0 min 0 W/m 2,7 C 4,2 C 9,7 km/h (2 Bft)
29.04.2016 01:06 4,2 C 91 % 1012,4 hPa 0,0 l/m 6,7 km/h (2 Bft) S-SO 166 0 min 0 W/m 2,9 C 3,9 C 9,7 km/h (2 Bft)
29.04.2016 01:09 4,3 C 91 % 1012,4 hPa 0,0 l/m 5,1 km/h (1 Bft) S 179 0 min 0 W/m 3,0 C 4,3 C 11,3 km/h (2 Bft)
29.04.2016 01:12 4,4 C 91 % 1012,4 hPa 0,0 l/m 4,6 km/h (1 Bft) S 178 0 min 0 W/m 3,1 C 4,4 C 9,7 km/h (2 Bft)
29.04.2016 01:15 4,5 C 91 % 1012,4 hPa 0,0 l/m 5,1 km/h (1 Bft) S-SO 163 0 min 0 W/m 3,2 C 4,5 C 8,0 km/h (2 Bft)
29.04.2016 01:18 4,6 C 91 % 1012,4 hPa 0,0 l/m 5,5 km/h (2 Bft) S-SW 213 0 min 0 W/m 3,3 C 4,6 C 12,9 km/h (3 Bft)
29.04.2016 01:21 4,6 C 90 % 1012,3 hPa 0,0 l/m 5,6 km/h (2 Bft) S-SO 163 0 min 0 W/m 3,1 C 4,6 C 9,7 km/h (2 Bft)
29.04.2016 01:24 4,7 C 90 % 1012,4 hPa 0,0 l/m 5,2 km/h (1 Bft) S-SW 195 0 min 0 W/m 3,2 C 4,7 C 9,7 km/h (2 Bft)
29.04.2016 01:27 4,6 C 90 % 1012,4 hPa 0,0 l/m 5,8 km/h (2 Bft) S 169 0 min 0 W/m 3,1 C 4,6 C 9,7 km/h (2 Bft)
29.04.2016 01:30 4,6 C 90 % 1012,3 hPa 0,0 l/m 4,9 km/h (1 Bft) S-SW 194 0 min 0 W/m 3,1 C 4,6 C 8,0 km/h (2 Bft)
29.04.2016 01:33 4,6 C 90 % 1012,3 hPa 0,0 l/m 5,7 km/h (2 Bft) S 178 0 min 0 W/m 3,1 C 4,6 C 8,0 km/h (2 Bft)
29.04.2016 01:36 4,6 C 90 % 1012,3 hPa 0,0 l/m 5,1 km/h (1 Bft) S-SW 204 0 min 0 W/m 3,1 C 4,6 C 8,0 km/h (2 Bft)
29.04.2016 01:39 4,6 C 90 % 1012,3 hPa 0,0 l/m 5,5 km/h (2 Bft) SW 229 0 min 0 W/m 3,1 C 4,6 C 11,3 km/h (2 Bft)
29.04.2016 01:42 4,6 C 90 % 1012,3 hPa 0,0 l/m 6,0 km/h (2 Bft) S 183 0 min 0 W/m 3,1 C 4,6 C 14,5 km/h (3 Bft)
29.04.2016 01:45 4,6 C 90 % 1012,2 hPa 0,0 l/m 7,1 km/h (2 Bft) SW 215 0 min 0 W/m 3,1 C 4,0 C 12,9 km/h (3 Bft)
29.04.2016 01:48 4,5 C 90 % 1012,2 hPa 0,0 l/m 6,8 km/h (2 Bft) S-SW 212 0 min 0 W/m 3,0 C 4,2 C 14,5 km/h (3 Bft)
29.04.2016 01:51 4,5 C 90 % 1012,2 hPa 0,0 l/m 5,3 km/h (1 Bft) S 186 0 min 0 W/m 3,0 C 4,5 C 11,3 km/h (2 Bft)
29.04.2016 01:54 4,3 C 90 % 1012,2 hPa 0,0 l/m 4,2 km/h (1 Bft) S 173 0 min 0 W/m 2,8 C 4,3 C 8,0 km/h (2 Bft)
29.04.2016 01:57 4,2 C 90 % 1012,2 hPa 0,0 l/m 4,8 km/h (1 Bft) S-SO 160 0 min 0 W/m 2,7 C 4,2 C 9,7 km/h (2 Bft)
29.04.2016 02:00 4,2 C 90 % 1012,2 hPa 0,0 l/m 5,2 km/h (1 Bft) S-SW 200 0 min 0 W/m 2,7 C 4,2 C 9,7 km/h (2 Bft)
29.04.2016 02:03 4,2 C 90 % 1012,2 hPa 0,0 l/m 5,9 km/h (2 Bft) S-SW 207 0 min 0 W/m 2,7 C 4,2 C 9,7 km/h (2 Bft)
29.04.2016 02:06 4,1 C 90 % 1012,2 hPa 0,0 l/m 6,3 km/h (2 Bft) S 173 0 min 0 W/m 2,6 C 4,1 C 12,9 km/h (3 Bft)
29.04.2016 02:09 4,1 C 90 % 1012,2 hPa 0,0 l/m 6,4 km/h (2 Bft) S 190 0 min 0 W/m 2,6 C 4,1 C 11,3 km/h (2 Bft)
29.04.2016 02:12 4,1 C 91 % 1012,3 hPa 0,0 l/m 5,7 km/h (2 Bft) S 185 0 min 0 W/m 2,8 C 4,1 C 11,3 km/h (2 Bft)
29.04.2016 02:15 3,9 C 90 % 1012,2 hPa 0,0 l/m 6,1 km/h (2 Bft) S 186 0 min 0 W/m 2,4 C 3,9 C 11,3 km/h (2 Bft)
29.04.2016 02:18 3,9 C 91 % 1012,3 hPa 0,0 l/m 5,8 km/h (2 Bft) S 178 0 min 0 W/m 2,6 C 3,9 C 9,7 km/h (2 Bft)
29.04.2016 02:21 3,9 C 91 % 1012,3 hPa 0,0 l/m 7,0 km/h (2 Bft) S-SO 167 0 min 0 W/m 2,6 C 3,4 C 16,1 km/h (3 Bft)
29.04.2016 02:24 3,8 C 91 % 1012,2 hPa 0,0 l/m 6,7 km/h (2 Bft) S 177 0 min 0 W/m 2,5 C 3,5 C 9,7 km/h (2 Bft)
29.04.2016 02:27 3,8 C 91 % 1012,2 hPa 0,0 l/m 5,2 km/h (1 Bft) S 190 0 min 0 W/m 2,5 C 3,8 C 9,7 km/h (2 Bft)
29.04.2016 02:30 3,8 C 91 % 1012,2 hPa 0,0 l/m 5,3 km/h (1 Bft) S 184 0 min 0 W/m 2,5 C 3,8 C 9,7 km/h (2 Bft)
29.04.2016 02:33 3,7 C 91 % 1012,1 hPa 0,0 l/m 6,0 km/h (2 Bft) S 177 0 min 0 W/m 2,4 C 3,7 C 9,7 km/h (2 Bft)
29.04.2016 02:36 3,6 C 91 % 1012,2 hPa 0,0 l/m 6,8 km/h (2 Bft) S-SO 165 0 min 0 W/m 2,3 C 3,2 C 9,7 km/h (2 Bft)
29.04.2016 02:39 3,6 C 91 % 1012,2 hPa 0,0 l/m 6,8 km/h (2 Bft) S-SO 167 0 min 0 W/m 2,3 C 3,2 C 9,7 km/h (2 Bft)
29.04.2016 02:42 3,4 C 91 % 1012,1 hPa 0,0 l/m 5,4 km/h (2 Bft) S 174 0 min 0 W/m 2,1 C 3,4 C 9,7 km/h (2 Bft)
29.04.2016 02:45 3,3 C 91 % 1012,1 hPa 0,0 l/m 6,0 km/h (2 Bft) S-SO 165 0 min 0 W/m 2,0 C 3,3 C 9,7 km/h (2 Bft)
29.04.2016 02:48 3,3 C 92 % 1012,1 hPa 0,0 l/m 4,5 km/h (1 Bft) S 169 0 min 0 W/m 2,1 C 3,3 C 9,7 km/h (2 Bft)
29.04.2016 02:51 3,3 C 92 % 1012,1 hPa 0,0 l/m 5,7 km/h (2 Bft) SO 136 0 min 0 W/m 2,1 C 3,3 C 9,7 km/h (2 Bft)
29.04.2016 02:54 3,3 C 92 % 1012,1 hPa 0,0 l/m 5,7 km/h (2 Bft) S-SO 161 0 min 0 W/m 2,1 C 3,3 C 9,7 km/h (2 Bft)
29.04.2016 02:57 3,3 C 92 % 1012,1 hPa 0,0 l/m 5,2 km/h (1 Bft) S-SO 157 0 min 0 W/m 2,1 C 3,3 C 9,7 km/h (2 Bft)
29.04.2016 03:00 3,3 C 92 % 1012,1 hPa 0,0 l/m 4,1 km/h (1 Bft) S-SO 167 0 min 0 W/m 2,1 C 3,3 C 8,0 km/h (2 Bft)
29.04.2016 03:03 3,3 C 92 % 1012,0 hPa 0,0 l/m 5,6 km/h (2 Bft) S-SO 157 0 min 0 W/m 2,1 C 3,3 C 9,7 km/h (2 Bft)
29.04.2016 03:06 3,3 C 92 % 1012,0 hPa 0,0 l/m 5,2 km/h (1 Bft) S 172 0 min 0 W/m 2,1 C 3,3 C 9,7 km/h (2 Bft)
29.04.2016 03:09 3,2 C 92 % 1012,0 hPa 0,0 l/m 5,1 km/h (1 Bft) S-SO 168 0 min 0 W/m 2,0 C 3,2 C 9,7 km/h (2 Bft)
29.04.2016 03:12 3,2 C 92 % 1012,0 hPa 0,0 l/m 5,6 km/h (2 Bft) S-SO 153 0 min 0 W/m 2,0 C 3,2 C 9,7 km/h (2 Bft)
29.04.2016 03:15 3,2 C 93 % 1012,0 hPa 0,0 l/m 4,5 km/h (1 Bft) SO 134 0 min 0 W/m 2,2 C 3,2 C 8,0 km/h (2 Bft)
29.04.2016 03:18 3,1 C 92 % 1012,0 hPa 0,0 l/m 4,2 km/h (1 Bft) O-SO 114 0 min 0 W/m 1,9 C 3,1 C 11,3 km/h (2 Bft)
29.04.2016 03:21 3,1 C 93 % 1011,9 hPa 0,0 l/m 4,1 km/h (1 Bft) S 173 0 min 0 W/m 2,1 C 3,1 C 9,7 km/h (2 Bft)
29.04.2016 03:24 3,1 C 93 % 1011,9 hPa 0,0 l/m 5,2 km/h (1 Bft) SO 124 0 min 0 W/m 2,1 C 3,1 C 9,7 km/h (2 Bft)
29.04.2016 03:27 3,0 C 93 % 1011,9 hPa 0,0 l/m 4,3 km/h (1 Bft) SO 130 0 min 0 W/m 2,0 C 3,0 C 8,0 km/h (2 Bft)
29.04.2016 03:30 2,9 C 93 % 1011,9 hPa 0,0 l/m 4,9 km/h (1 Bft) S-SO 160 0 min 0 W/m 1,9 C 2,9 C 9,7 km/h (2 Bft)
29.04.2016 03:33 2,8 C 93 % 1011,9 hPa 0,0 l/m 4,5 km/h (1 Bft) SO 141 0 min 0 W/m 1,8 C 2,8 C 9,7 km/h (2 Bft)
29.04.2016 03:36 2,7 C 93 % 1011,9 hPa 0,0 l/m 4,7 km/h (1 Bft) S-SO 150 0 min 0 W/m 1,7 C 2,7 C 9,7 km/h (2 Bft)
29.04.2016 03:39 2,6 C 93 % 1011,8 hPa 0,0 l/m 4,3 km/h (1 Bft) O-SO 117 0 min 0 W/m 1,6 C 2,6 C 9,7 km/h (2 Bft)
29.04.2016 03:42 2,5 C 93 % 1011,8 hPa 0,0 l/m 4,4 km/h (1 Bft) SO 129 0 min 0 W/m 1,5 C 2,5 C 8,0 km/h (2 Bft)
29.04.2016 03:45 2,5 C 93 % 1011,9 hPa 0,0 l/m 5,8 km/h (2 Bft) S-SO 155 0 min 0 W/m 1,5 C 2,5 C 9,7 km/h (2 Bft)
29.04.2016 03:48 2,4 C 94 % 1011,8 hPa 0,0 l/m 4,6 km/h (1 Bft) S 172 0 min 0 W/m 1,5 C 2,4 C 9,7 km/h (2 Bft)
29.04.2016 03:51 2,4 C 93 % 1011,8 hPa 0,0 l/m 4,6 km/h (1 Bft) O-SO 102 0 min 0 W/m 1,4 C 2,4 C 6,4 km/h (2 Bft)
29.04.2016 03:54 2,3 C 94 % 1011,7 hPa 0,0 l/m 5,2 km/h (1 Bft) SO 140 0 min 0 W/m 1,4 C 2,3 C 11,3 km/h (2 Bft)
29.04.2016 03:57 2,3 C 94 % 1011,6 hPa 0,0 l/m 4,6 km/h (1 Bft) O-SO 123 0 min 0 W/m 1,4 C 2,3 C 9,7 km/h (2 Bft)
29.04.2016 04:00 2,2 C 94 % 1011,5 hPa 0,0 l/m 5,6 km/h (2 Bft) SO 130 0 min 0 W/m 1,3 C 2,2 C 9,7 km/h (2 Bft)
29.04.2016 04:03 2,2 C 94 % 1011,6 hPa 0,0 l/m 3,9 km/h (1 Bft) S-SO 165 0 min 0 W/m 1,3 C 2,2 C 8,0 km/h (2 Bft)
29.04.2016 04:06 2,1 C 94 % 1011,6 hPa 0,0 l/m 4,3 km/h (1 Bft) O-SO 111 0 min 0 W/m 1,2 C 2,1 C 8,0 km/h (2 Bft)
29.04.2016 04:09 2,1 C 94 % 1011,6 hPa 0,0 l/m 5,4 km/h (2 Bft) O 96 0 min 0 W/m 1,2 C 2,1 C 11,3 km/h (2 Bft)
29.04.2016 04:12 2,0 C 94 % 1011,5 hPa 0,0 l/m 4,8 km/h (1 Bft) S 186 0 min 0 W/m 1,1 C 2,0 C 11,3 km/h (2 Bft)
29.04.2016 04:15 2,0 C 94 % 1011,5 hPa 0,0 l/m 6,7 km/h (2 Bft) S-SO 161 0 min 0 W/m 1,1 C 1,7 C 12,9 km/h (3 Bft)
29.04.2016 04:18 2,0 C 94 % 1011,5 hPa 0,0 l/m 4,9 km/h (1 Bft) SO 133 0 min 0 W/m 1,1 C 2,0 C 9,7 km/h (2 Bft)
29.04.2016 04:21 1,9 C 94 % 1011,5 hPa 0,0 l/m 5,4 km/h (2 Bft) S 171 0 min 0 W/m 1,0 C 1,9 C 9,7 km/h (2 Bft)
29.04.2016 04:24 2,0 C 94 % 1011,5 hPa 0,0 l/m 6,0 km/h (2 Bft) SO 141 0 min 0 W/m 1,1 C 2,0 C 9,7 km/h (2 Bft)
29.04.2016 04:27 2,0 C 94 % 1011,5 hPa 0,0 l/m 7,2 km/h (2 Bft) SO 130 0 min 0 W/m 1,1 C 1,2 C 11,3 km/h (2 Bft)
29.04.2016 04:30 2,0 C 94 % 1011,4 hPa 0,0 l/m 7,0 km/h (2 Bft) SO 144 0 min 0 W/m 1,1 C 1,4 C 14,5 km/h (3 Bft)
29.04.2016 04:33 2,1 C 95 % 1011,4 hPa 0,0 l/m 6,8 km/h (2 Bft) SO 143 0 min 0 W/m 1,4 C 1,7 C 14,5 km/h (3 Bft)
29.04.2016 04:36 2,0 C 95 % 1011,4 hPa 0,0 l/m 6,8 km/h (2 Bft) O-SO 117 0 min 0 W/m 1,3 C 1,6 C 14,5 km/h (3 Bft)
29.04.2016 04:39 2,1 C 95 % 1011,4 hPa 0,0 l/m 7,7 km/h (2 Bft) S 177 0 min 0 W/m 1,4 C 0,8 C 12,9 km/h (3 Bft)
29.04.2016 04:42 2,1 C 95 % 1011,3 hPa 0,0 l/m 7,7 km/h (2 Bft) S-SO 162 0 min 0 W/m 1,4 C 0,8 C 14,5 km/h (3 Bft)
29.04.2016 04:45 2,1 C 95 % 1011,3 hPa 0,0 l/m 7,1 km/h (2 Bft) S 176 0 min 0 W/m 1,4 C 1,4 C 12,9 km/h (3 Bft)
29.04.2016 04:48 2,1 C 95 % 1011,3 hPa 0,0 l/m 7,1 km/h (2 Bft) O 98 0 min 0 W/m 1,4 C 1,4 C 12,9 km/h (3 Bft)
29.04.2016 04:51 2,1 C 95 % 1011,2 hPa 0,0 l/m 7,0 km/h (2 Bft) O-SO 120 0 min 0 W/m 1,4 C 1,5 C 11,3 km/h (2 Bft)
29.04.2016 04:54 2,0 C 95 % 1011,2 hPa 0,0 l/m 8,7 km/h (2 Bft) O-SO 120 0 min 0 W/m 1,3 C -0,2 C 16,1 km/h (3 Bft)
29.04.2016 04:57 2,1 C 95 % 1011,2 hPa 0,0 l/m 7,8 km/h (2 Bft) SW 217 0 min 0 W/m 1,4 C 0,7 C 12,9 km/h (3 Bft)
29.04.2016 05:00 2,1 C 95 % 1011,2 hPa 0,0 l/m 8,2 km/h (2 Bft) S-SO 159 0 min 0 W/m 1,4 C 0,4 C 12,9 km/h (3 Bft)
29.04.2016 05:03 2,1 C 95 % 1011,2 hPa 0,0 l/m 8,6 km/h (2 Bft) S-SO 148 0 min 0 W/m 1,4 C 0,0 C 14,5 km/h (3 Bft)
29.04.2016 05:06 2,1 C 95 % 1011,2 hPa 0,0 l/m 8,2 km/h (2 Bft) O-SO 103 0 min 0 W/m 1,4 C 0,4 C 14,5 km/h (3 Bft)
29.04.2016 05:09 2,1 C 95 % 1011,1 hPa 0,0 l/m 7,6 km/h (2 Bft) SO 146 0 min 0 W/m 1,4 C 0,9 C 14,5 km/h (3 Bft)
29.04.2016 05:12 2,1 C 95 % 1011,1 hPa 0,0 l/m 7,8 km/h (2 Bft) SO 124 0 min 0 W/m 1,4 C 0,7 C 17,7 km/h (3 Bft)
29.04.2016 05:15 2,0 C 95 % 1011,0 hPa 0,0 l/m 8,1 km/h (2 Bft) S-SO 147 0 min 0 W/m 1,3 C 0,4 C 14,5 km/h (3 Bft)
29.04.2016 05:18 2,0 C 95 % 1011,0 hPa 0,0 l/m 8,1 km/h (2 Bft) S-SO 155 0 min 0 W/m 1,3 C 0,4 C 12,9 km/h (3 Bft)
29.04.2016 05:21 2,0 C 95 % 1011,0 hPa 0,0 l/m 10,0 km/h (2 Bft) S-SO 165 0 min 0 W/m 1,3 C -1,2 C 19,3 km/h (3 Bft)
29.04.2016 05:24 2,0 C 95 % 1010,9 hPa 0,0 l/m 7,3 km/h (2 Bft) SO 132 0 min 0 W/m 1,3 C 1,1 C 12,9 km/h (3 Bft)
29.04.2016 05:27 2,1 C 95 % 1010,9 hPa 0,0 l/m 7,5 km/h (2 Bft) S-SO 166 0 min 0 W/m 1,4 C 1,0 C 12,9 km/h (3 Bft)
29.04.2016 05:30 2,1 C 95 % 1010,9 hPa 0,0 l/m 9,3 km/h (2 Bft) SO 139 0 min 0 W/m 1,4 C -0,6 C 16,1 km/h (3 Bft)
29.04.2016 05:33 2,1 C 95 % 1010,9 hPa 0,0 l/m 9,1 km/h (2 Bft) O-SO 123 0 min 0 W/m 1,4 C -0,4 C 14,5 km/h (3 Bft)
29.04.2016 05:36 2,1 C 95 % 1010,8 hPa 0,0 l/m 9,7 km/h (2 Bft) S-SO 163 0 min 0 W/m 1,4 C -0,9 C 19,3 km/h (3 Bft)
29.04.2016 05:39 2,1 C 95 % 1010,8 hPa 0,0 l/m 7,9 km/h (2 Bft) SO 139 0 min 0 W/m 1,4 C 0,7 C 16,1 km/h (3 Bft)
29.04.2016 05:42 2,1 C 95 % 1010,8 hPa 0,0 l/m 7,7 km/h (2 Bft) O-SO 107 0 min 0 W/m 1,4 C 0,8 C 16,1 km/h (3 Bft)
29.04.2016 05:45 2,1 C 95 % 1010,8 hPa 0,0 l/m 6,9 km/h (2 Bft) SO 138 0 min 0 W/m 1,4 C 1,6 C 9,7 km/h (2 Bft)
29.04.2016 05:48 2,1 C 95 % 1010,7 hPa 0,0 l/m 7,5 km/h (2 Bft) S-SO 149 0 min 0 W/m 1,4 C 1,0 C 12,9 km/h (3 Bft)
29.04.2016 05:51 2,1 C 95 % 1010,6 hPa 0,0 l/m 9,7 km/h (2 Bft) SO 131 0 min 0 W/m 1,4 C -0,9 C 16,1 km/h (3 Bft)
29.04.2016 05:54 2,2 C 95 % 1010,6 hPa 0,0 l/m 8,2 km/h (2 Bft) S 182 0 min 0 W/m 1,5 C 0,5 C 17,7 km/h (3 Bft)
29.04.2016 05:57 2,2 C 95 % 1010,6 hPa 0,0 l/m 8,6 km/h (2 Bft) S-SO 157 0 min 0 W/m 1,5 C 0,1 C 14,5 km/h (3 Bft)
29.04.2016 06:00 2,2 C 95 % 1010,6 hPa 0,0 l/m 8,6 km/h (2 Bft) S-SO 148 0 min 0 W/m 1,5 C 0,1 C 14,5 km/h (3 Bft)
29.04.2016 06:03 2,2 C 95 % 1010,5 hPa 0,0 l/m 7,4 km/h (2 Bft) SO 137 0 min 5 W/m 1,5 C 1,2 C 14,5 km/h (3 Bft)
29.04.2016 06:06 2,2 C 94 % 1010,6 hPa 0,0 l/m 8,5 km/h (2 Bft) S-SO 149 0 min 7 W/m 1,3 C 0,2 C 16,1 km/h (3 Bft)
29.04.2016 06:09 2,2 C 94 % 1010,5 hPa 0,0 l/m 9,4 km/h (2 Bft) S-SO 152 0 min 7 W/m 1,3 C -0,5 C 14,5 km/h (3 Bft)
29.04.2016 06:12 2,3 C 94 % 1010,4 hPa 0,0 l/m 9,0 km/h (2 Bft) SO 132 0 min 11 W/m 1,4 C -0,1 C 16,1 km/h (3 Bft)
29.04.2016 06:15 2,3 C 94 % 1010,4 hPa 0,0 l/m 10,1 km/h (2 Bft) S-SO 158 0 min 11 W/m 1,4 C -1,0 C 19,3 km/h (3 Bft)
29.04.2016 06:18 2,3 C 94 % 1010,4 hPa 0,0 l/m 9,6 km/h (2 Bft) S 169 0 min 11 W/m 1,4 C -0,6 C 16,1 km/h (3 Bft)
29.04.2016 06:21 2,4 C 94 % 1010,4 hPa 0,0 l/m 10,7 km/h (2 Bft) S-SO 153 0 min 12 W/m 1,5 C -1,3 C 19,3 km/h (3 Bft)
29.04.2016 06:24 2,4 C 94 % 1010,4 hPa 0,0 l/m 9,7 km/h (2 Bft) S-SO 165 0 min 12 W/m 1,5 C -0,6 C 16,1 km/h (3 Bft)
29.04.2016 06:27 2,4 C 94 % 1010,4 hPa 0,0 l/m 9,3 km/h (2 Bft) O-SO 117 0 min 14 W/m 1,5 C -0,2 C 16,1 km/h (3 Bft)
29.04.2016 06:30 2,5 C 94 % 1010,3 hPa 0,0 l/m 12,3 km/h (2 Bft) S-SO 151 0 min 14 W/m 1,6 C -2,3 C 19,3 km/h (3 Bft)
29.04.2016 06:33 2,6 C 94 % 1010,4 hPa 0,0 l/m 10,1 km/h (2 Bft) O-SO 113 0 min 14 W/m 1,7 C -0,7 C 19,3 km/h (3 Bft)
29.04.2016 06:36 2,6 C 94 % 1010,3 hPa 0,0 l/m 10,2 km/h (2 Bft) O-SO 123 0 min 16 W/m 1,7 C -0,7 C 17,7 km/h (3 Bft)
29.04.2016 06:39 2,6 C 94 % 1010,3 hPa 0,0 l/m 9,9 km/h (2 Bft) SO 130 0 min 19 W/m 1,7 C -0,5 C 16,1 km/h (3 Bft)
29.04.2016 06:42 2,7 C 94 % 1010,2 hPa 0,0 l/m 8,8 km/h (2 Bft) O-SO 112 0 min 23 W/m 1,8 C 0,5 C 16,1 km/h (3 Bft)
29.04.2016 06:45 2,7 C 94 % 1010,3 hPa 0,0 l/m 10,0 km/h (2 Bft) S-SO 164 0 min 25 W/m 1,8 C -0,5 C 22,5 km/h (4 Bft)
29.04.2016 06:48 2,8 C 94 % 1010,2 hPa 0,0 l/m 9,0 km/h (2 Bft) SO 134 0 min 26 W/m 1,9 C 0,4 C 16,1 km/h (3 Bft)
29.04.2016 06:51 2,8 C 94 % 1010,2 hPa 0,0 l/m 11,3 km/h (2 Bft) SO 136 0 min 26 W/m 1,9 C -1,3 C 19,3 km/h (3 Bft)
29.04.2016 06:54 2,9 C 93 % 1010,2 hPa 0,0 l/m 10,5 km/h (2 Bft) S-SO 165 0 min 28 W/m 1,9 C -0,6 C 19,3 km/h (3 Bft)
29.04.2016 06:57 2,9 C 93 % 1010,2 hPa 0,0 l/m 8,8 km/h (2 Bft) S-SW 205 0 min 32 W/m 1,9 C 0,7 C 17,7 km/h (3 Bft)
29.04.2016 07:00 3,0 C 93 % 1010,2 hPa 0,0 l/m 9,6 km/h (2 Bft) S 172 0 min 35 W/m 2,0 C 0,2 C 17,7 km/h (3 Bft)
29.04.2016 07:03 3,1 C 93 % 1010,2 hPa 0,0 l/m 8,6 km/h (2 Bft) S 188 0 min 35 W/m 2,1 C 1,1 C 14,5 km/h (3 Bft)
29.04.2016 07:06 3,1 C 93 % 1010,1 hPa 0,0 l/m 7,3 km/h (2 Bft) SO 146 0 min 35 W/m 2,1 C 2,2 C 16,1 km/h (3 Bft)
29.04.2016 07:09 3,2 C 93 % 1010,1 hPa 0,0 l/m 9,5 km/h (2 Bft) SO 140 0 min 35 W/m 2,2 C 0,5 C 16,1 km/h (3 Bft)
29.04.2016 07:12 3,2 C 92 % 1010,1 hPa 0,0 l/m 8,8 km/h (2 Bft) S 187 0 min 35 W/m 2,0 C 1,0 C 14,5 km/h (3 Bft)
29.04.2016 07:15 3,2 C 92 % 1010,2 hPa 0,0 l/m 10,5 km/h (2 Bft) SO 138 0 min 37 W/m 2,0 C -0,3 C 17,7 km/h (3 Bft)
29.04.2016 07:18 3,3 C 92 % 1010,2 hPa 0,0 l/m 9,8 km/h (2 Bft) S-SO 157 0 min 42 W/m 2,1 C 0,3 C 20,9 km/h (4 Bft)
29.04.2016 07:21 3,3 C 92 % 1010,2 hPa 0,0 l/m 10,4 km/h (2 Bft) S 183 0 min 44 W/m 2,1 C -0,1 C 19,3 km/h (3 Bft)
29.04.2016 07:24 3,4 C 92 % 1010,1 hPa 0,0 l/m 13,3 km/h (3 Bft) SO 144 0 min 47 W/m 2,2 C -1,9 C 20,9 km/h (4 Bft)
29.04.2016 07:27 3,5 C 92 % 1010,1 hPa 0,0 l/m 8,8 km/h (2 Bft) O-SO 123 0 min 51 W/m 2,3 C 1,4 C 19,3 km/h (3 Bft)
29.04.2016 07:30 3,6 C 92 % 1010,2 hPa 0,0 l/m 10,7 km/h (2 Bft) O-SO 107 0 min 54 W/m 2,4 C 0,0 C 20,9 km/h (4 Bft)
29.04.2016 07:33 3,7 C 92 % 1010,1 hPa 0,0 l/m 10,1 km/h (2 Bft) SO 145 0 min 56 W/m 2,5 C 0,6 C 17,7 km/h (3 Bft)
29.04.2016 07:36 3,8 C 92 % 1010,2 hPa 0,0 l/m 13,0 km/h (3 Bft) S-SO 153 0 min 60 W/m 2,6 C -1,2 C 22,5 km/h (4 Bft)
29.04.2016 07:39 3,9 C 91 % 1010,1 hPa 0,0 l/m 10,6 km/h (2 Bft) SO 129 0 min 67 W/m 2,6 C 0,4 C 14,5 km/h (3 Bft)
29.04.2016 07:42 4,0 C 91 % 1010,1 hPa 0,0 l/m 11,9 km/h (2 Bft) S-SO 163 0 min 74 W/m 2,7 C -0,3 C 20,9 km/h (4 Bft)
29.04.2016 07:45 4,1 C 91 % 1010,1 hPa 0,0 l/m 8,9 km/h (2 Bft) S-SW 193 0 min 74 W/m 2,8 C 1,9 C 22,5 km/h (4 Bft)
29.04.2016 07:48 4,2 C 91 % 1010,2 hPa 0,0 l/m 11,7 km/h (2 Bft) SW 217 0 min 69 W/m 2,9 C 0,0 C 20,9 km/h (4 Bft)
29.04.2016 07:51 4,3 C 90 % 1010,1 hPa 0,0 l/m 9,8 km/h (2 Bft) S-SO 161 0 min 70 W/m 2,8 C 1,4 C 16,1 km/h (3 Bft)
29.04.2016 07:54 4,3 C 90 % 1010,1 hPa 0,0 l/m 13,2 km/h (3 Bft) O-SO 119 0 min 70 W/m 2,8 C -0,8 C 25,7 km/h (4 Bft)
29.04.2016 07:57 4,4 C 90 % 1010,1 hPa 0,0 l/m 13,6 km/h (3 Bft) SO 125 0 min 70 W/m 2,9 C -0,9 C 20,9 km/h (4 Bft)
29.04.2016 08:00 4,5 C 89 % 1010,1 hPa 0,0 l/m 15,2 km/h (3 Bft) S 184 0 min 72 W/m 2,8 C -1,6 C 25,7 km/h (4 Bft)
29.04.2016 08:03 4,6 C 89 % 1010,2 hPa 0,0 l/m 8,4 km/h (2 Bft) SO 142 0 min 74 W/m 2,9 C 2,9 C 16,1 km/h (3 Bft)
29.04.2016 08:06 4,7 C 89 % 1010,2 hPa 0,0 l/m 14,2 km/h (3 Bft) S-SO 161 0 min 77 W/m 3,0 C -0,9 C 22,5 km/h (4 Bft)
29.04.2016 08:09 4,8 C 88 % 1010,2 hPa 0,0 l/m 12,6 km/h (3 Bft) S-SW 202 0 min 76 W/m 3,0 C 0,2 C 19,3 km/h (3 Bft)
29.04.2016 08:12 4,8 C 88 % 1010,1 hPa 0,0 l/m 12,0 km/h (2 Bft) SO 145 0 min 72 W/m 3,0 C 0,5 C 20,9 km/h (4 Bft)
29.04.2016 08:15 4,9 C 88 % 1010,1 hPa 0,0 l/m 11,9 km/h (2 Bft) S-SO 150 0 min 54 W/m 3,1 C 0,7 C 20,9 km/h (4 Bft)
29.04.2016 08:18 4,9 C 87 % 1010,1 hPa 0,0 l/m 12,0 km/h (2 Bft) S 176 0 min 65 W/m 2,9 C 0,6 C 20,9 km/h (4 Bft)
29.04.2016 08:21 5,0 C 87 % 1010,1 hPa 0,0 l/m 13,6 km/h (3 Bft) SO 139 0 min 77 W/m 3,0 C -0,2 C 22,5 km/h (4 Bft)
29.04.2016 08:24 5,1 C 87 % 1010,2 hPa 0,0 l/m 10,7 km/h (2 Bft) S 177 0 min 79 W/m 3,1 C 1,7 C 20,9 km/h (4 Bft)
29.04.2016 08:27 5,1 C 87 % 1010,2 hPa 0,0 l/m 12,6 km/h (3 Bft) SO 130 0 min 90 W/m 3,1 C 0,5 C 19,3 km/h (3 Bft)
29.04.2016 08:30 5,2 C 86 % 1010,2 hPa 0,0 l/m 13,6 km/h (3 Bft) S-SO 168 0 min 90 W/m 3,1 C 0,1 C 22,5 km/h (4 Bft)
29.04.2016 08:33 5,3 C 86 % 1010,1 hPa 0,0 l/m 10,1 km/h (2 Bft) O-SO 119 0 min 91 W/m 3,2 C 2,3 C 16,1 km/h (3 Bft)
29.04.2016 08:36 5,4 C 85 % 1010,1 hPa 0,0 l/m 10,7 km/h (2 Bft) S-SO 160 0 min 95 W/m 3,1 C 2,0 C 20,9 km/h (4 Bft)
29.04.2016 08:39 5,6 C 85 % 1010,1 hPa 0,0 l/m 11,5 km/h (2 Bft) S-SO 159 0 min 93 W/m 3,3 C 1,8 C 20,9 km/h (4 Bft)
29.04.2016 08:42 5,7 C 84 % 1010,1 hPa 0,0 l/m 12,4 km/h (2 Bft) S 173 0 min 98 W/m 3,2 C 1,3 C 22,5 km/h (4 Bft)
29.04.2016 08:45 5,7 C 84 % 1010,1 hPa 0,0 l/m 10,9 km/h (2 Bft) S 180 0 min 100 W/m 3,2 C 2,2 C 20,9 km/h (4 Bft)
29.04.2016 08:48 5,8 C 84 % 1010,0 hPa 0,0 l/m 12,7 km/h (3 Bft) S 175 0 min 104 W/m 3,3 C 1,3 C 19,3 km/h (3 Bft)
29.04.2016 08:51 5,9 C 83 % 1010,0 hPa 0,0 l/m 11,1 km/h (2 Bft) SO 144 0 min 109 W/m 3,2 C 2,3 C 17,7 km/h (3 Bft)
29.04.2016 08:54 6,1 C 83 % 1010,1 hPa 0,0 l/m 11,6 km/h (2 Bft) S-SO 154 0 min 113 W/m 3,4 C 2,3 C 24,1 km/h (4 Bft)
29.04.2016 08:57 6,3 C 83 % 1010,0 hPa 0,0 l/m 12,1 km/h (2 Bft) S-SO 161 0 min 114 W/m 3,6 C 2,2 C 25,7 km/h (4 Bft)
29.04.2016 09:00 6,6 C 81 % 1010,0 hPa 0,0 l/m 14,5 km/h (3 Bft) S 177 0 min 121 W/m 3,6 C 1,3 C 25,7 km/h (4 Bft)
29.04.2016 09:03 6,7 C 82 % 1010,0 hPa 0,0 l/m 13,0 km/h (3 Bft) S-SO 164 0 min 132 W/m 3,8 C 2,2 C 24,1 km/h (4 Bft)
29.04.2016 09:06 6,8 C 80 % 1010,0 hPa 0,0 l/m 15,6 km/h (3 Bft) S 175 0 min 135 W/m 3,6 C 1,0 C 24,1 km/h (4 Bft)
29.04.2016 09:09 6,9 C 80 % 1009,9 hPa 0,0 l/m 13,9 km/h (3 Bft) S-SO 157 0 min 139 W/m 3,7 C 1,9 C 29,0 km/h (5 Bft)
29.04.2016 09:12 6,9 C 80 % 1010,0 hPa 0,0 l/m 15,1 km/h (3 Bft) S-SO 154 0 min 142 W/m 3,7 C 1,3 C 29,0 km/h (5 Bft)
29.04.2016 09:15 6,9 C 80 % 1009,8 hPa 0,0 l/m 14,2 km/h (3 Bft) S-SW 199 0 min 149 W/m 3,7 C 1,8 C 25,7 km/h (4 Bft)
29.04.2016 09:18 7,1 C 80 % 1009,8 hPa 0,0 l/m 11,3 km/h (2 Bft) S-SO 168 0 min 149 W/m 3,9 C 3,6 C 27,4 km/h (5 Bft)
29.04.2016 09:21 7,2 C 79 % 1009,7 hPa 0,0 l/m 13,9 km/h (3 Bft) S 184 0 min 149 W/m 3,8 C 2,3 C 25,7 km/h (4 Bft)
29.04.2016 09:24 7,2 C 80 % 1009,7 hPa 0,0 l/m 13,5 km/h (3 Bft) S-SO 155 0 min 149 W/m 4,0 C 2,5 C 22,5 km/h (4 Bft)
29.04.2016 09:27 7,3 C 79 % 1009,7 hPa 0,0 l/m 14,7 km/h (3 Bft) SO 139 0 min 149 W/m 3,9 C 2,0 C 29,0 km/h (5 Bft)
29.04.2016 09:30 7,3 C 79 % 1009,7 hPa 0,0 l/m 11,9 km/h (2 Bft) S-SO 164 0 min 148 W/m 3,9 C 3,5 C 22,5 km/h (4 Bft)
29.04.2016 09:33 7,5 C 80 % 1009,6 hPa 0,0 l/m 11,8 km/h (2 Bft) SW 229 0 min 148 W/m 4,3 C 3,7 C 22,5 km/h (4 Bft)
29.04.2016 09:36 7,6 C 78 % 1009,7 hPa 0,0 l/m 13,7 km/h (3 Bft) SO 141 0 min 160 W/m 4,0 C 2,9 C 22,5 km/h (4 Bft)
29.04.2016 09:39 7,7 C 78 % 1009,6 hPa 0,0 l/m 13,4 km/h (3 Bft) S-SO 155 0 min 160 W/m 4,1 C 3,1 C 24,1 km/h (4 Bft)
29.04.2016 09:42 7,8 C 77 % 1009,5 hPa 0,0 l/m 13,7 km/h (3 Bft) S-SW 200 0 min 165 W/m 4,0 C 3,1 C 25,7 km/h (4 Bft)
29.04.2016 09:45 7,9 C 75 % 1009,5 hPa 0,0 l/m 15,2 km/h (3 Bft) SO 142 0 min 165 W/m 3,7 C 2,5 C 29,0 km/h (5 Bft)
29.04.2016 09:48 7,9 C 74 % 1009,6 hPa 0,0 l/m 17,8 km/h (3 Bft) S-SO 159 0 min 167 W/m 3,6 C 1,4 C 27,4 km/h (5 Bft)
29.04.2016 09:51 8,0 C 74 % 1009,5 hPa 0,0 l/m 17,1 km/h (3 Bft) SO 141 0 min 171 W/m 3,7 C 1,8 C 27,4 km/h (5 Bft)
29.04.2016 09:54 8,1 C 75 % 1009,5 hPa 0,0 l/m 14,6 km/h (3 Bft) S-SW 192 0 min 174 W/m 3,9 C 3,0 C 29,0 km/h (5 Bft)
29.04.2016 09:57 8,2 C 74 % 1009,5 hPa 0,0 l/m 16,1 km/h (3 Bft) S 178 0 min 174 W/m 3,8 C 2,5 C 25,7 km/h (4 Bft)
29.04.2016 10:00 8,2 C 73 % 1009,7 hPa 0,0 l/m 17,2 km/h (3 Bft) S 171 0 min 172 W/m 3,7 C 2,0 C 29,0 km/h (5 Bft)
29.04.2016 10:03 8,3 C 72 % 1009,7 hPa 0,0 l/m 17,8 km/h (3 Bft) S-SW 193 0 min 169 W/m 3,6 C 1,9 C 30,6 km/h (5 Bft)
29.04.2016 10:06 8,4 C 72 % 1009,6 hPa 0,0 l/m 16,4 km/h (3 Bft) S-SO 167 0 min 172 W/m 3,7 C 2,6 C 30,6 km/h (5 Bft)
29.04.2016 10:09 8,5 C 73 % 1009,6 hPa 0,0 l/m 15,0 km/h (3 Bft) S 178 0 min 176 W/m 3,9 C 3,3 C 24,1 km/h (4 Bft)
29.04.2016 10:12 8,6 C 72 % 1009,6 hPa 0,0 l/m 16,6 km/h (3 Bft) S-SO 151 0 min 188 W/m 3,8 C 2,8 C 30,6 km/h (5 Bft)
29.04.2016 10:15 8,7 C 73 % 1009,5 hPa 0,0 l/m 15,1 km/h (3 Bft) S-SO 153 0 min 188 W/m 4,1 C 3,5 C 25,7 km/h (4 Bft)
29.04.2016 10:18 8,9 C 73 % 1009,6 hPa 0,0 l/m 13,3 km/h (3 Bft) O 99 0 min 197 W/m 4,3 C 4,6 C 30,6 km/h (5 Bft)
29.04.2016 10:21 8,9 C 72 % 1009,5 hPa 0,0 l/m 16,8 km/h (3 Bft) S-SW 198 0 min 209 W/m 4,1 C 3,0 C 25,7 km/h (4 Bft)
29.04.2016 10:24 9,1 C 72 % 1009,4 hPa 0,0 l/m 15,8 km/h (3 Bft) S-SO 155 0 min 216 W/m 4,3 C 3,7 C 32,2 km/h (5 Bft)
29.04.2016 10:27 9,3 C 71 % 1009,4 hPa 0,0 l/m 14,8 km/h (3 Bft) S 173 3 min 381 W/m 4,3 C 4,4 C 22,5 km/h (4 Bft)
29.04.2016 10:30 9,6 C 71 % 1009,5 hPa 0,0 l/m 16,0 km/h (3 Bft) S-SO 160 3 min 394 W/m 4,6 C 4,2 C 29,0 km/h (5 Bft)
29.04.2016 10:33 9,8 C 70 % 1009,5 hPa 0,0 l/m 14,9 km/h (3 Bft) S 190 3 min 353 W/m 4,6 C 4,9 C 27,4 km/h (5 Bft)
29.04.2016 10:36 9,9 C 69 % 1009,5 hPa 0,0 l/m 15,8 km/h (3 Bft) S-SO 160 0 min 250 W/m 4,5 C 4,7 C 27,4 km/h (5 Bft)
29.04.2016 10:39 9,7 C 68 % 1009,5 hPa 0,0 l/m 21,7 km/h (4 Bft) S 191 0 min 255 W/m 4,1 C 2,4 C 32,2 km/h (5 Bft)
29.04.2016 10:42 9,7 C 69 % 1009,5 hPa 0,0 l/m 19,9 km/h (4 Bft) S 172 0 min 211 W/m 4,3 C 2,9 C 33,8 km/h (5 Bft)
29.04.2016 10:45 9,7 C 70 % 1009,5 hPa 0,0 l/m 14,5 km/h (3 Bft) S-SO 159 0 min 185 W/m 4,5 C 5,0 C 22,5 km/h (4 Bft)
29.04.2016 10:48 9,7 C 70 % 1009,6 hPa 0,0 l/m 13,4 km/h (3 Bft) SW 236 0 min 163 W/m 4,5 C 5,5 C 24,1 km/h (4 Bft)
29.04.2016 10:51 9,6 C 69 % 1009,6 hPa 0,0 l/m 17,5 km/h (3 Bft) S-SW 209 0 min 174 W/m 4,2 C 3,6 C 30,6 km/h (5 Bft)
29.04.2016 10:54 9,4 C 69 % 1009,6 hPa 0,0 l/m 20,7 km/h (4 Bft) S-SW 195 0 min 211 W/m 4,0 C 2,3 C 40,2 km/h (6 Bft)
29.04.2016 10:57 9,4 C 69 % 1009,7 hPa 0,0 l/m 17,1 km/h (3 Bft) SW 236 0 min 211 W/m 4,0 C 3,6 C 27,4 km/h (5 Bft)
29.04.2016 11:00 9,4 C 70 % 1009,6 hPa 0,0 l/m 17,3 km/h (3 Bft) S 182 0 min 193 W/m 4,2 C 3,5 C 27,4 km/h (5 Bft)
29.04.2016 11:03 9,3 C 70 % 1009,7 hPa 0,0 l/m 19,3 km/h (3 Bft) S-SO 163 0 min 183 W/m 4,1 C 2,6 C 35,4 km/h (5 Bft)
29.04.2016 11:06 9,3 C 69 % 1009,6 hPa 0,0 l/m 18,2 km/h (3 Bft) S 188 0 min 199 W/m 3,9 C 3,0 C 32,2 km/h (5 Bft)
29.04.2016 11:09 9,4 C 71 % 1009,7 hPa 0,0 l/m 13,4 km/h (3 Bft) S-SW 194 0 min 206 W/m 4,4 C 5,1 C 24,1 km/h (4 Bft)
29.04.2016 11:12 9,5 C 71 % 1009,7 hPa 0,0 l/m 16,2 km/h (3 Bft) S-SW 196 0 min 223 W/m 4,5 C 4,0 C 32,2 km/h (5 Bft)
29.04.2016 11:15 9,4 C 70 % 1009,7 hPa 0,0 l/m 18,8 km/h (3 Bft) S-SW 212 0 min 244 W/m 4,2 C 2,9 C 30,6 km/h (5 Bft)
29.04.2016 11:18 9,6 C 72 % 1009,7 hPa 0,0 l/m 15,6 km/h (3 Bft) S 171 0 min 269 W/m 4,8 C 4,4 C 32,2 km/h (5 Bft)
29.04.2016 11:21 9,6 C 70 % 1009,8 hPa 0,0 l/m 17,1 km/h (3 Bft) SW 236 0 min 290 W/m 4,4 C 3,8 C 32,2 km/h (5 Bft)
29.04.2016 11:24 9,8 C 71 % 1009,8 hPa 0,0 l/m 16,0 km/h (3 Bft) S 183 0 min 274 W/m 4,8 C 4,5 C 24,1 km/h (4 Bft)
29.04.2016 11:27 9,8 C 70 % 1009,8 hPa 0,0 l/m 19,0 km/h (3 Bft) S-SO 165 0 min 243 W/m 4,6 C 3,4 C 35,4 km/h (5 Bft)
29.04.2016 11:30 9,8 C 69 % 1009,8 hPa 0,0 l/m 18,8 km/h (3 Bft) SW 215 0 min 174 W/m 4,4 C 3,4 C 40,2 km/h (6 Bft)
29.04.2016 11:33 9,8 C 70 % 1009,9 hPa 0,0 l/m 18,7 km/h (3 Bft) S-SW 195 0 min 127 W/m 4,6 C 3,5 C 32,2 km/h (5 Bft)
29.04.2016 11:36 9,7 C 70 % 1009,8 hPa 0,0 l/m 20,4 km/h (4 Bft) S-SO 157 0 min 137 W/m 4,5 C 2,8 C 35,4 km/h (5 Bft)
29.04.2016 11:39 9,7 C 70 % 1009,9 hPa 0,0 l/m 16,1 km/h (3 Bft) SW 234 0 min 123 W/m 4,5 C 4,3 C 24,1 km/h (4 Bft)
29.04.2016 11:42 9,7 C 71 % 1009,9 hPa 0,0 l/m 13,2 km/h (3 Bft) S 182 0 min 120 W/m 4,7 C 5,6 C 20,9 km/h (4 Bft)
29.04.2016 11:45 9,7 C 70 % 1009,9 hPa 0,0 l/m 16,0 km/h (3 Bft) S-SW 211 0 min 90 W/m 4,5 C 4,4 C 27,4 km/h (5 Bft)
29.04.2016 11:48 9,6 C 71 % 1009,9 hPa 0,0 l/m 13,1 km/h (3 Bft) S 169 0 min 62 W/m 4,6 C 5,5 C 22,5 km/h (4 Bft)
29.04.2016 11:51 9,6 C 72 % 1009,9 hPa 0,0 l/m 10,5 km/h (2 Bft) W-SW 241 0 min 42 W/m 4,8 C 6,9 C 19,3 km/h (3 Bft)
29.04.2016 11:54 9,5 C 72 % 1009,9 hPa 0,0 l/m 14,3 km/h (3 Bft) S-SO 167 0 min 44 W/m 4,7 C 4,8 C 27,4 km/h (5 Bft)
29.04.2016 11:57 9,4 C 71 % 1009,9 hPa 0,0 l/m 18,9 km/h (3 Bft) SW 215 0 min 37 W/m 4,4 C 2,9 C 32,2 km/h (5 Bft)
29.04.2016 12:00 9,3 C 72 % 1009,9 hPa 0,0 l/m 15,4 km/h (3 Bft) W 265 0 min 35 W/m 4,5 C 4,1 C 32,2 km/h (5 Bft)
29.04.2016 12:03 9,3 C 74 % 1009,9 hPa 0,0 l/m 11,8 km/h (2 Bft) S 186 0 min 35 W/m 4,9 C 5,8 C 19,3 km/h (3 Bft)
29.04.2016 12:06 9,2 C 74 % 1010,0 hPa 0,0 l/m 11,8 km/h (2 Bft) S-SW 195 0 min 32 W/m 4,8 C 5,7 C 20,9 km/h (4 Bft)
29.04.2016 12:09 9,2 C 75 % 1010,2 hPa 0,0 l/m 17,3 km/h (3 Bft) S-SW 208 0 min 26 W/m 5,0 C 3,2 C 27,4 km/h (5 Bft)
29.04.2016 12:12 8,9 C 79 % 1010,4 hPa 0,0 l/m 17,7 km/h (3 Bft) W-SW 248 0 min 19 W/m 5,5 C 2,7 C 30,6 km/h (5 Bft)
29.04.2016 12:15 8,4 C 81 % 1010,4 hPa 0,0 l/m 14,8 km/h (3 Bft) SW 230 0 min 35 W/m 5,3 C 3,3 C 27,4 km/h (5 Bft)
29.04.2016 12:18 7,9 C 85 % 1010,6 hPa 0,2 l/m 15,4 km/h (3 Bft) SW 226 0 min 40 W/m 5,5 C 2,4 C 27,4 km/h (5 Bft)
29.04.2016 12:21 7,5 C 86 % 1010,7 hPa 0,0 l/m 19,8 km/h (3 Bft) SW 234 0 min 47 W/m 5,3 C 0,1 C 27,4 km/h (5 Bft)
29.04.2016 12:24 7,3 C 87 % 1010,6 hPa 0,0 l/m 17,2 km/h (3 Bft) W-SW 241 0 min 44 W/m 5,3 C 0,9 C 25,7 km/h (4 Bft)
29.04.2016 12:27 7,1 C 88 % 1010,7 hPa 0,2 l/m 18,0 km/h (3 Bft) S-SW 209 0 min 58 W/m 5,2 C 0,3 C 29,0 km/h (5 Bft)
29.04.2016 12:30 7,0 C 89 % 1010,8 hPa 0,0 l/m 16,4 km/h (3 Bft) SW 233 0 min 42 W/m 5,3 C 0,9 C 32,2 km/h (5 Bft)
29.04.2016 12:33 6,8 C 89 % 1010,8 hPa 0,0 l/m 15,5 km/h (3 Bft) SW 232 0 min 37 W/m 5,1 C 1,0 C 29,0 km/h (5 Bft)
29.04.2016 12:36 6,7 C 90 % 1010,9 hPa 0,0 l/m 13,7 km/h (3 Bft) W 262 0 min 44 W/m 5,2 C 1,8 C 22,5 km/h (4 Bft)
29.04.2016 12:39 6,6 C 90 % 1011,0 hPa 0,0 l/m 16,6 km/h (3 Bft) SW 223 0 min 49 W/m 5,1 C 0,3 C 29,0 km/h (5 Bft)
29.04.2016 12:42 6,5 C 90 % 1010,9 hPa 0,2 l/m 14,9 km/h (3 Bft) SW 225 0 min 76 W/m 5,0 C 0,9 C 27,4 km/h (5 Bft)
29.04.2016 12:45 6,4 C 90 % 1011,0 hPa 0,0 l/m 16,7 km/h (3 Bft) W-SW 255 0 min 74 W/m 4,9 C -0,0 C 30,6 km/h (5 Bft)
29.04.2016 12:48 6,4 C 90 % 1011,0 hPa 0,0 l/m 15,1 km/h (3 Bft) W-SW 244 0 min 44 W/m 4,9 C 0,7 C 25,7 km/h (4 Bft)
29.04.2016 12:51 6,3 C 91 % 1011,0 hPa 0,2 l/m 12,0 km/h (2 Bft) SW 234 0 min 56 W/m 4,9 C 2,3 C 22,5 km/h (4 Bft)
29.04.2016 12:54 6,3 C 91 % 1011,0 hPa 0,0 l/m 12,6 km/h (3 Bft) SW 228 0 min 46 W/m 4,9 C 1,9 C 25,7 km/h (4 Bft)
29.04.2016 12:57 6,2 C 91 % 1011,1 hPa 0,0 l/m 15,5 km/h (3 Bft) SW 220 0 min 39 W/m 4,8 C 0,3 C 22,5 km/h (4 Bft)
29.04.2016 13:00 6,1 C 91 % 1011,1 hPa 0,0 l/m 13,9 km/h (3 Bft) W-SW 244 0 min 42 W/m 4,7 C 1,0 C 24,1 km/h (4 Bft)
29.04.2016 13:03 6,1 C 91 % 1011,0 hPa 0,0 l/m 13,6 km/h (3 Bft) S-SW 211 0 min 40 W/m 4,7 C 1,1 C 24,1 km/h (4 Bft)
29.04.2016 13:06 6,1 C 91 % 1011,0 hPa 0,0 l/m 10,8 km/h (2 Bft) SW 227 0 min 47 W/m 4,7 C 2,8 C 20,9 km/h (4 Bft)
29.04.2016 13:09 6,1 C 91 % 1011,0 hPa 0,0 l/m 8,8 km/h (2 Bft) W-SW 244 0 min 35 W/m 4,7 C 4,1 C 19,3 km/h (3 Bft)
29.04.2016 13:12 6,0 C 91 % 1011,1 hPa 0,0 l/m 13,2 km/h (3 Bft) S-SW 197 0 min 37 W/m 4,6 C 1,2 C 22,5 km/h (4 Bft)
29.04.2016 13:15 5,9 C 91 % 1011,1 hPa 0,0 l/m 12,7 km/h (3 Bft) SW 226 0 min 42 W/m 4,5 C 1,4 C 24,1 km/h (4 Bft)
29.04.2016 13:18 5,9 C 91 % 1011,0 hPa 0,0 l/m 11,6 km/h (2 Bft) SW 216 0 min 49 W/m 4,5 C 2,0 C 19,3 km/h (3 Bft)
29.04.2016 13:21 5,9 C 91 % 1011,0 hPa 0,0 l/m 12,8 km/h (3 Bft) SW 234 0 min 54 W/m 4,5 C 1,3 C 22,5 km/h (4 Bft)
29.04.2016 13:24 5,9 C 91 % 1011,0 hPa 0,0 l/m 9,0 km/h (2 Bft) W-SW 257 0 min 44 W/m 4,5 C 3,8 C 17,7 km/h (3 Bft)
29.04.2016 13:27 5,9 C 91 % 1011,1 hPa 0,0 l/m 8,7 km/h (2 Bft) W-SW 248 0 min 49 W/m 4,5 C 4,0 C 20,9 km/h (4 Bft)
29.04.2016 13:30 5,9 C 91 % 1011,1 hPa 0,0 l/m 9,9 km/h (2 Bft) W-SW 248 0 min 37 W/m 4,5 C 3,1 C 16,1 km/h (3 Bft)
29.04.2016 13:33 5,9 C 91 % 1011,2 hPa 0,0 l/m 9,7 km/h (2 Bft) W-SW 240 0 min 28 W/m 4,5 C 3,3 C 17,7 km/h (3 Bft)
29.04.2016 13:36 5,9 C 91 % 1011,2 hPa 0,0 l/m 10,8 km/h (2 Bft) SW 234 0 min 28 W/m 4,5 C 2,5 C 17,7 km/h (3 Bft)
29.04.2016 13:39 5,8 C 91 % 1011,1 hPa 0,0 l/m 8,1 km/h (2 Bft) S-SW 213 0 min 47 W/m 4,4 C 4,4 C 14,5 km/h (3 Bft)
29.04.2016 13:42 5,9 C 91 % 1011,1 hPa 0,0 l/m 7,1 km/h (2 Bft) W-SW 237 0 min 58 W/m 4,5 C 5,3 C 9,7 km/h (2 Bft)
29.04.2016 13:45 5,9 C 91 % 1011,2 hPa 0,2 l/m 9,3 km/h (2 Bft) W-SW 244 0 min 54 W/m 4,5 C 3,6 C 14,5 km/h (3 Bft)
29.04.2016 13:48 5,9 C 91 % 1011,3 hPa 0,0 l/m 7,8 km/h (2 Bft) SW 229 0 min 58 W/m 4,5 C 4,7 C 16,1 km/h (3 Bft)
29.04.2016 13:51 6,0 C 92 % 1011,2 hPa 0,0 l/m 8,7 km/h (2 Bft) SW 218 0 min 60 W/m 4,8 C 4,1 C 16,1 km/h (3 Bft)
29.04.2016 13:54 6,1 C 92 % 1011,3 hPa 0,0 l/m 10,2 km/h (2 Bft) S-SW 213 0 min 62 W/m 4,9 C 3,2 C 16,1 km/h (3 Bft)
29.04.2016 13:57 6,2 C 92 % 1011,3 hPa 0,0 l/m 7,6 km/h (2 Bft) SW 234 0 min 105 W/m 5,0 C 5,2 C 12,9 km/h (3 Bft)
29.04.2016 14:00 6,3 C 93 % 1011,3 hPa 0,0 l/m 8,1 km/h (2 Bft) SW 226 0 min 104 W/m 5,3 C 4,9 C 11,3 km/h (2 Bft)
29.04.2016 14:03 6,4 C 93 % 1011,3 hPa 0,0 l/m 6,9 km/h (2 Bft) S-SW 205 0 min 88 W/m 5,4 C 6,0 C 12,9 km/h (3 Bft)
29.04.2016 14:06 6,5 C 93 % 1011,4 hPa 0,2 l/m 7,5 km/h (2 Bft) SW 227 0 min 74 W/m 5,5 C 5,6 C 12,9 km/h (3 Bft)
29.04.2016 14:09 6,5 C 93 % 1011,3 hPa 0,0 l/m 7,4 km/h (2 Bft) SW 223 0 min 63 W/m 5,5 C 5,7 C 11,3 km/h (2 Bft)
29.04.2016 14:12 6,6 C 93 % 1011,3 hPa 0,0 l/m 6,9 km/h (2 Bft) W-SW 239 0 min 39 W/m 5,6 C 6,2 C 12,9 km/h (3 Bft)
29.04.2016 14:15 6,6 C 94 % 1011,3 hPa 0,0 l/m 7,3 km/h (2 Bft) S-SW 192 0 min 54 W/m 5,7 C 5,8 C 12,9 km/h (3 Bft)
29.04.2016 14:18 6,7 C 94 % 1011,4 hPa 0,0 l/m 5,9 km/h (2 Bft) S-SW 204 0 min 91 W/m 5,8 C 6,7 C 9,7 km/h (2 Bft)
29.04.2016 14:21 6,8 C 94 % 1011,4 hPa 0,0 l/m 6,4 km/h (2 Bft) S 172 0 min 98 W/m 5,9 C 6,8 C 12,9 km/h (3 Bft)
29.04.2016 14:24 6,8 C 94 % 1011,5 hPa 0,0 l/m 6,1 km/h (2 Bft) S-SW 209 0 min 76 W/m 5,9 C 6,8 C 11,3 km/h (2 Bft)
29.04.2016 14:27 6,9 C 94 % 1011,4 hPa 0,0 l/m 6,3 km/h (2 Bft) S 182 0 min 109 W/m 6,0 C 6,9 C 9,7 km/h (2 Bft)
29.04.2016 14:30 7,0 C 94 % 1011,4 hPa 0,0 l/m 5,2 km/h (1 Bft) S-SO 153 0 min 243 W/m 6,1 C 7,0 C 8,0 km/h (2 Bft)
29.04.2016 14:33 7,2 C 95 % 1011,4 hPa 0,0 l/m 6,5 km/h (2 Bft) SW 229 0 min 218 W/m 6,5 C 7,1 C 12,9 km/h (3 Bft)
29.04.2016 14:36 7,4 C 94 % 1011,4 hPa 0,0 l/m 5,8 km/h (2 Bft) S 173 0 min 132 W/m 6,5 C 7,4 C 11,3 km/h (2 Bft)
29.04.2016 14:39 7,5 C 94 % 1011,5 hPa 0,0 l/m 6,4 km/h (2 Bft) SW 219 0 min 105 W/m 6,6 C 7,5 C 9,7 km/h (2 Bft)
29.04.2016 14:42 7,5 C 94 % 1011,5 hPa 0,0 l/m 6,0 km/h (2 Bft) S-SO 167 0 min 109 W/m 6,6 C 7,5 C 11,3 km/h (2 Bft)
29.04.2016 14:45 7,6 C 94 % 1011,5 hPa 0,0 l/m 5,1 km/h (1 Bft) S 183 0 min 60 W/m 6,7 C 7,6 C 11,3 km/h (2 Bft)
29.04.2016 14:48 7,6 C 94 % 1011,5 hPa 0,0 l/m 5,2 km/h (1 Bft) S-SW 192 0 min 53 W/m 6,7 C 7,6 C 9,7 km/h (2 Bft)
29.04.2016 14:51 7,5 C 93 % 1011,5 hPa 0,0 l/m 4,9 km/h (1 Bft) S-SO 161 0 min 47 W/m 6,4 C 7,5 C 11,3 km/h (2 Bft)
29.04.2016 14:54 7,5 C 94 % 1011,5 hPa 0,0 l/m 3,6 km/h (1 Bft) S 174 0 min 26 W/m 6,6 C 7,5 C 9,7 km/h (2 Bft)
29.04.2016 14:57 7,4 C 93 % 1011,5 hPa 0,2 l/m 5,9 km/h (2 Bft) S 170 0 min 53 W/m 6,3 C 7,4 C 9,7 km/h (2 Bft)
29.04.2016 15:00 7,4 C 94 % 1011,6 hPa 0,0 l/m 7,1 km/h (2 Bft) S 191 0 min 95 W/m 6,5 C 6,8 C 12,9 km/h (3 Bft)
29.04.2016 15:03 7,4 C 94 % 1011,5 hPa 0,0 l/m 5,2 km/h (1 Bft) S-SW 211 0 min 139 W/m 6,5 C 7,4 C 9,7 km/h (2 Bft)
29.04.2016 15:06 7,6 C 94 % 1011,5 hPa 0,0 l/m 5,7 km/h (2 Bft) S-SW 209 0 min 69 W/m 6,7 C 7,6 C 12,9 km/h (3 Bft)
29.04.2016 15:09 7,6 C 94 % 1011,6 hPa 0,0 l/m 7,1 km/h (2 Bft) W-SW 244 0 min 39 W/m 6,7 C 7,0 C 14,5 km/h (3 Bft)
29.04.2016 15:12 7,6 C 93 % 1011,7 hPa 0,4 l/m 8,0 km/h (2 Bft) SW 221 0 min 18 W/m 6,5 C 6,3 C 12,9 km/h (3 Bft)
29.04.2016 15:15 7,6 C 93 % 1011,7 hPa 0,4 l/m 6,3 km/h (2 Bft) SW 221 0 min 30 W/m 6,5 C 7,6 C 9,7 km/h (2 Bft)
29.04.2016 15:18 7,5 C 93 % 1011,8 hPa 0,0 l/m 13,0 km/h (3 Bft) SW 217 0 min 46 W/m 6,4 C 3,1 C 22,5 km/h (4 Bft)
29.04.2016 15:21 7,6 C 94 % 1011,7 hPa 0,2 l/m 14,3 km/h (3 Bft) SW 215 0 min 56 W/m 6,7 C 2,6 C 19,3 km/h (3 Bft)
29.04.2016 15:24 7,6 C 93 % 1011,8 hPa 0,0 l/m 12,5 km/h (2 Bft) SW 216 0 min 63 W/m 6,5 C 3,5 C 20,9 km/h (4 Bft)
29.04.2016 15:27 7,6 C 94 % 1011,8 hPa 0,0 l/m 11,1 km/h (2 Bft) W-SW 241 0 min 116 W/m 6,7 C 4,3 C 17,7 km/h (3 Bft)
29.04.2016 15:30 7,6 C 94 % 1011,8 hPa 0,0 l/m 12,0 km/h (2 Bft) SW 224 0 min 111 W/m 6,7 C 3,8 C 17,7 km/h (3 Bft)
29.04.2016 15:33 7,7 C 93 % 1011,9 hPa 0,0 l/m 15,2 km/h (3 Bft) W-SW 238 0 min 104 W/m 6,6 C 2,3 C 27,4 km/h (5 Bft)
29.04.2016 15:36 7,7 C 93 % 1011,9 hPa 0,0 l/m 12,8 km/h (3 Bft) S-SW 205 0 min 84 W/m 6,6 C 3,4 C 16,1 km/h (3 Bft)
29.04.2016 15:39 7,7 C 93 % 1011,9 hPa 0,0 l/m 15,0 km/h (3 Bft) SW 219 0 min 65 W/m 6,6 C 2,3 C 22,5 km/h (4 Bft)
29.04.2016 15:42 7,7 C 92 % 1011,9 hPa 0,0 l/m 11,0 km/h (2 Bft) SW 229 0 min 54 W/m 6,5 C 4,4 C 19,3 km/h (3 Bft)
29.04.2016 15:45 7,7 C 92 % 1011,9 hPa 0,2 l/m 13,9 km/h (3 Bft) S-SW 204 0 min 63 W/m 6,5 C 2,9 C 22,5 km/h (4 Bft)
29.04.2016 15:48 7,7 C 92 % 1011,9 hPa 0,0 l/m 11,1 km/h (2 Bft) SW 219 0 min 125 W/m 6,5 C 4,4 C 17,7 km/h (3 Bft)
29.04.2016 15:51 7,7 C 92 % 1011,8 hPa 0,0 l/m 10,7 km/h (2 Bft) SW 234 0 min 197 W/m 6,5 C 4,6 C 17,7 km/h (3 Bft)
29.04.2016 15:54 7,8 C 92 % 1011,9 hPa 0,0 l/m 11,6 km/h (2 Bft) S-SW 207 0 min 104 W/m 6,6 C 4,2 C 19,3 km/h (3 Bft)
29.04.2016 15:57 7,8 C 91 % 1011,9 hPa 0,0 l/m 13,7 km/h (3 Bft) SW 219 0 min 77 W/m 6,4 C 3,1 C 20,9 km/h (4 Bft)
29.04.2016 16:00 7,8 C 91 % 1012,0 hPa 0,0 l/m 9,0 km/h (2 Bft) S-SW 204 0 min 95 W/m 6,4 C 5,8 C 17,7 km/h (3 Bft)
29.04.2016 16:03 7,8 C 90 % 1011,9 hPa 0,0 l/m 12,6 km/h (3 Bft) S-SW 205 0 min 116 W/m 6,3 C 3,7 C 20,9 km/h (4 Bft)
29.04.2016 16:06 7,8 C 90 % 1011,9 hPa 0,0 l/m 9,0 km/h (2 Bft) W-SW 244 0 min 128 W/m 6,3 C 5,8 C 17,7 km/h (3 Bft)
29.04.2016 16:09 7,9 C 89 % 1012,0 hPa 0,0 l/m 10,1 km/h (2 Bft) S-SW 193 0 min 125 W/m 6,2 C 5,2 C 16,1 km/h (3 Bft)
29.04.2016 16:12 8,1 C 90 % 1011,9 hPa 0,0 l/m 6,5 km/h (2 Bft) S 175 0 min 105 W/m 6,6 C 8,0 C 11,3 km/h (2 Bft)
29.04.2016 16:15 8,2 C 90 % 1012,0 hPa 0,0 l/m 6,7 km/h (2 Bft) SW 236 0 min 95 W/m 6,7 C 8,0 C 14,5 km/h (3 Bft)
29.04.2016 16:18 8,3 C 90 % 1012,0 hPa 0,0 l/m 6,0 km/h (2 Bft) S 181 0 min 123 W/m 6,8 C 8,3 C 12,9 km/h (3 Bft)
29.04.2016 16:21 8,3 C 90 % 1012,1 hPa 0,0 l/m 6,2 km/h (2 Bft) S 174 0 min 134 W/m 6,8 C 8,3 C 11,3 km/h (2 Bft)
29.04.2016 16:24 8,3 C 90 % 1012,1 hPa 0,0 l/m 8,9 km/h (2 Bft) S 178 0 min 125 W/m 6,8 C 6,4 C 12,9 km/h (3 Bft)
29.04.2016 16:27 8,3 C 90 % 1012,1 hPa 0,0 l/m 7,4 km/h (2 Bft) O-SO 107 0 min 155 W/m 6,8 C 7,5 C 14,5 km/h (3 Bft)
29.04.2016 16:30 8,4 C 90 % 1012,1 hPa 0,0 l/m 9,2 km/h (2 Bft) S 173 0 min 153 W/m 6,9 C 6,3 C 16,1 km/h (3 Bft)
29.04.2016 16:33 8,5 C 90 % 1012,1 hPa 0,0 l/m 6,9 km/h (2 Bft) S 170 0 min 142 W/m 7,0 C 8,1 C 16,1 km/h (3 Bft)
29.04.2016 16:36 8,6 C 90 % 1012,1 hPa 0,0 l/m 8,7 km/h (2 Bft) S 171 0 min 127 W/m 7,1 C 6,9 C 17,7 km/h (3 Bft)
29.04.2016 16:39 8,7 C 89 % 1012,1 hPa 0,0 l/m 8,4 km/h (2 Bft) S-SW 201 0 min 127 W/m 7,0 C 7,2 C 16,1 km/h (3 Bft)
29.04.2016 16:42 8,8 C 88 % 1012,1 hPa 0,0 l/m 9,7 km/h (2 Bft) S 178 0 min 114 W/m 6,9 C 6,5 C 16,1 km/h (3 Bft)
29.04.2016 16:45 8,9 C 88 % 1012,1 hPa 0,0 l/m 7,4 km/h (2 Bft) W-SW 252 0 min 127 W/m 7,0 C 8,1 C 14,5 km/h (3 Bft)
29.04.2016 16:48 8,9 C 87 % 1012,1 hPa 0,0 l/m 11,5 km/h (2 Bft) S 186 0 min 135 W/m 6,9 C 5,5 C 19,3 km/h (3 Bft)
29.04.2016 16:51 9,0 C 86 % 1012,2 hPa 0,0 l/m 10,5 km/h (2 Bft) SW 227 0 min 109 W/m 6,8 C 6,2 C 20,9 km/h (4 Bft)
29.04.2016 16:54 9,1 C 87 % 1012,1 hPa 0,0 l/m 6,9 km/h (2 Bft) S 180 0 min 90 W/m 7,1 C 8,7 C 11,3 km/h (2 Bft)
29.04.2016 16:57 9,1 C 87 % 1012,2 hPa 0,0 l/m 9,1 km/h (2 Bft) S-SO 148 0 min 81 W/m 7,1 C 7,2 C 17,7 km/h (3 Bft)
29.04.2016 17:00 9,1 C 86 % 1012,2 hPa 0,0 l/m 8,9 km/h (2 Bft) S-SW 196 0 min 81 W/m 6,9 C 7,3 C 14,5 km/h (3 Bft)
29.04.2016 17:03 9,0 C 86 % 1012,2 hPa 0,0 l/m 10,9 km/h (2 Bft) S 188 0 min 56 W/m 6,8 C 6,0 C 20,9 km/h (4 Bft)
29.04.2016 17:06 8,9 C 85 % 1012,2 hPa 0,0 l/m 10,9 km/h (2 Bft) S-SO 150 0 min 47 W/m 6,5 C 5,9 C 22,5 km/h (4 Bft)
29.04.2016 17:09 8,9 C 85 % 1012,3 hPa 0,0 l/m 9,8 km/h (2 Bft) SW 218 0 min 47 W/m 6,5 C 6,5 C 17,7 km/h (3 Bft)
29.04.2016 17:12 8,9 C 85 % 1012,3 hPa 0,0 l/m 5,7 km/h (2 Bft) SW 234 0 min 44 W/m 6,5 C 8,9 C 12,9 km/h (3 Bft)
29.04.2016 17:15 8,8 C 85 % 1012,5 hPa 0,0 l/m 13,5 km/h (3 Bft) SW 233 0 min 35 W/m 6,4 C 4,4 C 25,7 km/h (4 Bft)
29.04.2016 17:18 8,2 C 83 % 1012,6 hPa 0,0 l/m 8,4 km/h (2 Bft) W 272 0 min 26 W/m 5,5 C 6,7 C 16,1 km/h (3 Bft)
29.04.2016 17:21 7,6 C 86 % 1012,7 hPa 0,0 l/m 7,9 km/h (2 Bft) W-SW 257 0 min 23 W/m 5,4 C 6,4 C 12,9 km/h (3 Bft)
29.04.2016 17:24 7,3 C 87 % 1012,6 hPa 0,0 l/m 5,7 km/h (2 Bft) W-NW 296 0 min 28 W/m 5,3 C 7,3 C 11,3 km/h (2 Bft)
29.04.2016 17:27 7,2 C 89 % 1012,6 hPa 0,0 l/m 5,4 km/h (2 Bft) W-SW 243 0 min 49 W/m 5,5 C 7,2 C 9,7 km/h (2 Bft)
29.04.2016 17:30 7,1 C 90 % 1012,5 hPa 0,0 l/m 3,4 km/h (1 Bft) W-SW 237 0 min 63 W/m 5,6 C 7,1 C 9,7 km/h (2 Bft)
29.04.2016 17:33 7,1 C 91 % 1012,5 hPa 0,0 l/m 4,5 km/h (1 Bft) S 181 0 min 62 W/m 5,7 C 7,1 C 9,7 km/h (2 Bft)
29.04.2016 17:36 7,1 C 91 % 1012,6 hPa 0,0 l/m 4,6 km/h (1 Bft) SW 221 0 min 54 W/m 5,7 C 7,1 C 8,0 km/h (2 Bft)
29.04.2016 17:39 7,0 C 91 % 1012,6 hPa 0,0 l/m 2,5 km/h (1 Bft) SW 229 0 min 58 W/m 5,6 C 7,0 C 4,8 km/h (1 Bft)
29.04.2016 17:42 7,1 C 91 % 1012,5 hPa 0,0 l/m 3,8 km/h (1 Bft) SW 229 0 min 60 W/m 5,7 C 7,1 C 6,4 km/h (2 Bft)
29.04.2016 17:45 7,1 C 92 % 1012,6 hPa 0,0 l/m 2,7 km/h (1 Bft) SW 229 0 min 58 W/m 5,9 C 7,1 C 4,8 km/h (1 Bft)
29.04.2016 17:48 7,2 C 91 % 1012,5 hPa 0,0 l/m 3,0 km/h (1 Bft) SW 226 0 min 65 W/m 5,8 C 7,2 C 6,4 km/h (2 Bft)
29.04.2016 17:51 7,3 C 92 % 1012,5 hPa 0,0 l/m 3,1 km/h (1 Bft) S-SW 201 0 min 63 W/m 6,1 C 7,3 C 4,8 km/h (1 Bft)
29.04.2016 17:54 7,4 C 92 % 1012,4 hPa 0,0 l/m 3,9 km/h (1 Bft) S 175 0 min 56 W/m 6,2 C 7,4 C 9,7 km/h (2 Bft)
29.04.2016 17:57 7,6 C 91 % 1012,4 hPa 0,0 l/m 6,1 km/h (2 Bft) S 182 0 min 53 W/m 6,2 C 7,6 C 11,3 km/h (2 Bft)
29.04.2016 18:00 7,8 C 90 % 1012,4 hPa 0,0 l/m 6,8 km/h (2 Bft) NO 46 0 min 54 W/m 6,3 C 7,5 C 14,5 km/h (3 Bft)
29.04.2016 18:03 7,9 C 89 % 1012,4 hPa 0,0 l/m 4,7 km/h (1 Bft) S-SO 167 0 min 62 W/m 6,2 C 7,9 C 9,7 km/h (2 Bft)
29.04.2016 18:06 7,9 C 88 % 1012,5 hPa 0,0 l/m 7,6 km/h (2 Bft) SW 232 0 min 62 W/m 6,0 C 7,0 C 16,1 km/h (3 Bft)
29.04.2016 18:09 8,1 C 86 % 1012,4 hPa 0,0 l/m 12,9 km/h (3 Bft) S 179 0 min 62 W/m 5,9 C 3,8 C 22,5 km/h (4 Bft)
29.04.2016 18:12 8,1 C 85 % 1012,4 hPa 0,0 l/m 12,0 km/h (2 Bft) S-SO 161 0 min 54 W/m 5,7 C 4,3 C 20,9 km/h (4 Bft)
29.04.2016 18:15 8,1 C 83 % 1012,4 hPa 0,0 l/m 12,7 km/h (3 Bft) O 99 0 min 58 W/m 5,4 C 4,0 C 24,1 km/h (4 Bft)
29.04.2016 18:18 8,1 C 82 % 1012,4 hPa 0,0 l/m 11,2 km/h (2 Bft) SO 127 0 min 62 W/m 5,2 C 4,8 C 20,9 km/h (4 Bft)
29.04.2016 18:21 8,1 C 81 % 1012,4 hPa 0,0 l/m 13,8 km/h (3 Bft) S 190 0 min 63 W/m 5,0 C 3,4 C 22,5 km/h (4 Bft)
29.04.2016 18:24 8,1 C 81 % 1012,5 hPa 0,0 l/m 13,1 km/h (3 Bft) O-SO 120 0 min 63 W/m 5,0 C 3,7 C 24,1 km/h (4 Bft)
29.04.2016 18:27 8,0 C 80 % 1012,5 hPa 0,0 l/m 13,6 km/h (3 Bft) S 173 0 min 63 W/m 4,8 C 3,4 C 25,7 km/h (4 Bft)
29.04.2016 18:30 7,9 C 80 % 1012,5 hPa 0,0 l/m 13,1 km/h (3 Bft) S 178 0 min 65 W/m 4,7 C 3,5 C 24,1 km/h (4 Bft)
29.04.2016 18:33 7,9 C 80 % 1012,4 hPa 0,0 l/m 13,5 km/h (3 Bft) S 175 0 min 72 W/m 4,7 C 3,3 C 22,5 km/h (4 Bft)
29.04.2016 18:36 7,9 C 80 % 1012,5 hPa 0,0 l/m 14,5 km/h (3 Bft) S 178 0 min 70 W/m 4,7 C 2,8 C 30,6 km/h (5 Bft)
29.04.2016 18:39 7,9 C 80 % 1012,5 hPa 0,0 l/m 13,2 km/h (3 Bft) SW 232 0 min 70 W/m 4,7 C 3,5 C 24,1 km/h (4 Bft)
29.04.2016 18:42 7,9 C 79 % 1012,4 hPa 0,0 l/m 15,6 km/h (3 Bft) S-SO 168 0 min 65 W/m 4,5 C 2,3 C 25,7 km/h (4 Bft)
29.04.2016 18:45 7,9 C 80 % 1012,5 hPa 0,0 l/m 12,5 km/h (2 Bft) S 172 0 min 63 W/m 4,7 C 3,8 C 19,3 km/h (3 Bft)
29.04.2016 18:48 7,9 C 81 % 1012,6 hPa 0,0 l/m 9,8 km/h (2 Bft) S-SW 196 0 min 63 W/m 4,8 C 5,4 C 16,1 km/h (3 Bft)
29.04.2016 18:51 7,9 C 82 % 1012,6 hPa 0,0 l/m 8,6 km/h (2 Bft) S 173 0 min 65 W/m 5,0 C 6,2 C 14,5 km/h (3 Bft)
29.04.2016 18:54 7,9 C 82 % 1012,7 hPa 0,0 l/m 9,2 km/h (2 Bft) S 178 0 min 63 W/m 5,0 C 5,8 C 14,5 km/h (3 Bft)
29.04.2016 18:57 7,9 C 81 % 1012,7 hPa 0,0 l/m 11,7 km/h (2 Bft) S-SO 161 0 min 62 W/m 4,8 C 4,3 C 19,3 km/h (3 Bft)
29.04.2016 19:00 7,9 C 81 % 1012,6 hPa 0,0 l/m 12,9 km/h (3 Bft) S 182 0 min 60 W/m 4,8 C 3,6 C 22,5 km/h (4 Bft)
29.04.2016 19:03 7,9 C 81 % 1012,6 hPa 0,0 l/m 12,8 km/h (3 Bft) SO 127 0 min 58 W/m 4,8 C 3,7 C 20,9 km/h (4 Bft)
29.04.2016 19:06 7,9 C 81 % 1012,6 hPa 0,0 l/m 12,4 km/h (2 Bft) S 184 0 min 60 W/m 4,8 C 3,9 C 19,3 km/h (3 Bft)
29.04.2016 19:09 7,9 C 81 % 1012,6 hPa 0,0 l/m 11,7 km/h (2 Bft) S 182 0 min 60 W/m 4,8 C 4,3 C 17,7 km/h (3 Bft)
29.04.2016 19:12 7,9 C 80 % 1012,6 hPa 0,0 l/m 10,6 km/h (2 Bft) S-SO 150 0 min 54 W/m 4,7 C 4,9 C 22,5 km/h (4 Bft)
29.04.2016 19:15 7,9 C 80 % 1012,6 hPa 0,0 l/m 12,1 km/h (2 Bft) S 175 0 min 53 W/m 4,7 C 4,0 C 20,9 km/h (4 Bft)
29.04.2016 19:18 7,9 C 80 % 1012,6 hPa 0,0 l/m 10,7 km/h (2 Bft) S-SO 163 0 min 49 W/m 4,7 C 4,8 C 19,3 km/h (3 Bft)
29.04.2016 19:21 7,9 C 80 % 1012,7 hPa 0,0 l/m 8,6 km/h (2 Bft) S-SO 163 0 min 44 W/m 4,7 C 6,2 C 17,7 km/h (3 Bft)
29.04.2016 19:24 7,9 C 80 % 1012,7 hPa 0,0 l/m 9,6 km/h (2 Bft) S 171 0 min 40 W/m 4,7 C 5,5 C 14,5 km/h (3 Bft)
29.04.2016 19:27 7,9 C 80 % 1012,7 hPa 0,0 l/m 9,7 km/h (2 Bft) SO 145 0 min 39 W/m 4,7 C 5,5 C 19,3 km/h (3 Bft)
29.04.2016 19:30 7,9 C 80 % 1012,7 hPa 0,0 l/m 10,6 km/h (2 Bft) S 176 0 min 39 W/m 4,7 C 4,9 C 19,3 km/h (3 Bft)
29.04.2016 19:33 7,9 C 80 % 1012,8 hPa 0,0 l/m 10,0 km/h (2 Bft) S 180 0 min 40 W/m 4,7 C 5,3 C 17,7 km/h (3 Bft)
29.04.2016 19:36 7,9 C 80 % 1012,8 hPa 0,0 l/m 11,1 km/h (2 Bft) S-SW 192 0 min 40 W/m 4,7 C 4,6 C 17,7 km/h (3 Bft)
29.04.2016 19:39 7,9 C 80 % 1012,8 hPa 0,0 l/m 10,0 km/h (2 Bft) S 181 0 min 40 W/m 4,7 C 5,3 C 17,7 km/h (3 Bft)
29.04.2016 19:42 7,9 C 81 % 1012,9 hPa 0,0 l/m 8,9 km/h (2 Bft) S 184 0 min 35 W/m 4,8 C 6,0 C 16,1 km/h (3 Bft)
29.04.2016 19:45 7,8 C 81 % 1012,9 hPa 0,0 l/m 8,7 km/h (2 Bft) S 175 0 min 28 W/m 4,7 C 6,0 C 14,5 km/h (3 Bft)
29.04.2016 19:48 7,8 C 82 % 1012,9 hPa 0,0 l/m 6,8 km/h (2 Bft) S 180 0 min 25 W/m 4,9 C 7,5 C 12,9 km/h (3 Bft)
29.04.2016 19:51 7,8 C 82 % 1012,9 hPa 0,0 l/m 9,9 km/h (2 Bft) S 178 0 min 21 W/m 4,9 C 5,2 C 17,7 km/h (3 Bft)
29.04.2016 19:54 7,8 C 82 % 1012,9 hPa 0,0 l/m 9,4 km/h (2 Bft) S 175 0 min 21 W/m 4,9 C 5,6 C 14,5 km/h (3 Bft)
29.04.2016 19:57 7,8 C 82 % 1013,0 hPa 0,0 l/m 8,8 km/h (2 Bft) SW 229 0 min 12 W/m 4,9 C 6,0 C 14,5 km/h (3 Bft)
29.04.2016 20:00 7,8 C 81 % 1013,2 hPa 0,0 l/m 15,9 km/h (3 Bft) SW 229 0 min 7 W/m 4,7 C 2,1 C 25,7 km/h (4 Bft)
29.04.2016 20:03 7,7 C 78 % 1013,2 hPa 0,0 l/m 17,1 km/h (3 Bft) SW 228 0 min 7 W/m 4,1 C 1,4 C 22,5 km/h (4 Bft)
29.04.2016 20:06 7,6 C 79 % 1013,2 hPa 0,0 l/m 16,0 km/h (3 Bft) SW 216 0 min 7 W/m 4,2 C 1,8 C 24,1 km/h (4 Bft)
29.04.2016 20:09 7,4 C 79 % 1013,3 hPa 0,0 l/m 16,2 km/h (3 Bft) W-SW 255 0 min 9 W/m 4,0 C 1,4 C 24,1 km/h (4 Bft)
29.04.2016 20:12 7,3 C 80 % 1013,3 hPa 0,0 l/m 15,4 km/h (3 Bft) SW 215 0 min 7 W/m 4,1 C 1,7 C 20,9 km/h (4 Bft)
29.04.2016 20:15 7,2 C 81 % 1013,3 hPa 0,0 l/m 12,2 km/h (2 Bft) S-SW 210 0 min 7 W/m 4,2 C 3,2 C 20,9 km/h (4 Bft)
29.04.2016 20:18 7,1 C 82 % 1013,3 hPa 0,0 l/m 11,4 km/h (2 Bft) S-SW 212 0 min 5 W/m 4,2 C 3,5 C 17,7 km/h (3 Bft)
29.04.2016 20:21 7,1 C 82 % 1013,3 hPa 0,0 l/m 9,4 km/h (2 Bft) W-SW 237 0 min 0 W/m 4,2 C 4,8 C 16,1 km/h (3 Bft)
29.04.2016 20:24 7,0 C 83 % 1013,4 hPa 0,0 l/m 11,7 km/h (2 Bft) SW 215 0 min 0 W/m 4,3 C 3,2 C 17,7 km/h (3 Bft)
29.04.2016 20:27 6,9 C 83 % 1013,3 hPa 0,0 l/m 10,0 km/h (2 Bft) SW 224 0 min 0 W/m 4,2 C 4,2 C 14,5 km/h (3 Bft)
29.04.2016 20:30 6,9 C 84 % 1013,3 hPa 0,0 l/m 6,5 km/h (2 Bft) S 182 0 min 0 W/m 4,4 C 6,8 C 11,3 km/h (2 Bft)
29.04.2016 20:33 6,8 C 84 % 1013,4 hPa 0,0 l/m 6,2 km/h (2 Bft) SW 231 0 min 0 W/m 4,3 C 6,8 C 11,3 km/h (2 Bft)
29.04.2016 20:36 6,8 C 84 % 1013,4 hPa 0,0 l/m 7,3 km/h (2 Bft) W 259 0 min 0 W/m 4,3 C 6,1 C 14,5 km/h (3 Bft)
29.04.2016 20:39 6,8 C 85 % 1013,4 hPa 0,0 l/m 6,7 km/h (2 Bft) W-SW 239 0 min 0 W/m 4,5 C 6,6 C 9,7 km/h (2 Bft)
29.04.2016 20:42 6,7 C 85 % 1013,4 hPa 0,0 l/m 6,2 km/h (2 Bft) SW 230 0 min 0 W/m 4,4 C 6,7 C 9,7 km/h (2 Bft)
29.04.2016 20:45 6,7 C 85 % 1013,4 hPa 0,0 l/m 4,8 km/h (1 Bft) S 176 0 min 0 W/m 4,4 C 6,7 C 8,0 km/h (2 Bft)
29.04.2016 20:48 6,7 C 86 % 1013,5 hPa 0,0 l/m 3,7 km/h (1 Bft) S 170 0 min 0 W/m 4,5 C 6,7 C 8,0 km/h (2 Bft)
29.04.2016 20:51 6,7 C 87 % 1013,4 hPa 0,0 l/m 3,8 km/h (1 Bft) S 186 0 min 0 W/m 4,7 C 6,7 C 6,4 km/h (2 Bft)
29.04.2016 20:54 6,6 C 87 % 1013,5 hPa 0,0 l/m 4,6 km/h (1 Bft) S 171 0 min 0 W/m 4,6 C 6,6 C 8,0 km/h (2 Bft)
29.04.2016 20:57 6,6 C 87 % 1013,5 hPa 0,0 l/m 5,4 km/h (2 Bft) S-SO 165 0 min 0 W/m 4,6 C 6,6 C 8,0 km/h (2 Bft)
29.04.2016 21:00 6,6 C 87 % 1013,5 hPa 0,0 l/m 4,9 km/h (1 Bft) S-SO 164 0 min 0 W/m 4,6 C 6,6 C 8,0 km/h (2 Bft)
29.04.2016 21:03 6,6 C 88 % 1013,5 hPa 0,0 l/m 4,6 km/h (1 Bft) S-SO 167 0 min 0 W/m 4,8 C 6,6 C 8,0 km/h (2 Bft)
29.04.2016 21:06 6,6 C 88 % 1013,6 hPa 0,0 l/m 5,1 km/h (1 Bft) S 175 0 min 0 W/m 4,8 C 6,6 C 9,7 km/h (2 Bft)
29.04.2016 21:09 6,6 C 87 % 1013,6 hPa 0,0 l/m 5,3 km/h (1 Bft) S-SO 157 0 min 0 W/m 4,6 C 6,6 C 11,3 km/h (2 Bft)
29.04.2016 21:12 6,6 C 87 % 1013,6 hPa 0,0 l/m 5,1 km/h (1 Bft) S-SO 164 0 min 0 W/m 4,6 C 6,6 C 8,0 km/h (2 Bft)
29.04.2016 21:15 6,5 C 87 % 1013,6 hPa 0,0 l/m 3,4 km/h (1 Bft) S-SO 165 0 min 0 W/m 4,5 C 6,5 C 6,4 km/h (2 Bft)
29.04.2016 21:18 6,5 C 87 % 1013,6 hPa 0,0 l/m 4,5 km/h (1 Bft) S-SO 166 0 min 0 W/m 4,5 C 6,5 C 6,4 km/h (2 Bft)
29.04.2016 21:21 6,5 C 87 % 1013,6 hPa 0,0 l/m 3,9 km/h (1 Bft) S-SO 165 0 min 0 W/m 4,5 C 6,5 C 8,0 km/h (2 Bft)
29.04.2016 21:24 6,4 C 86 % 1013,6 hPa 0,0 l/m 5,6 km/h (2 Bft) S-SO 167 0 min 0 W/m 4,2 C 6,4 C 8,0 km/h (2 Bft)
29.04.2016 21:27 6,4 C 86 % 1013,7 hPa 0,0 l/m 5,2 km/h (1 Bft) S-SO 167 0 min 0 W/m 4,2 C 6,4 C 8,0 km/h (2 Bft)
29.04.2016 21:30 6,4 C 86 % 1013,7 hPa 0,0 l/m 5,9 km/h (2 Bft) S 173 0 min 0 W/m 4,2 C 6,4 C 11,3 km/h (2 Bft)
29.04.2016 21:33 6,4 C 86 % 1013,8 hPa 0,0 l/m 5,4 km/h (2 Bft) S 179 0 min 0 W/m 4,2 C 6,4 C 9,7 km/h (2 Bft)
29.04.2016 21:36 6,4 C 86 % 1013,8 hPa 0,0 l/m 5,1 km/h (1 Bft) S-SO 148 0 min 0 W/m 4,2 C 6,4 C 9,7 km/h (2 Bft)
29.04.2016 21:39 6,4 C 86 % 1013,8 hPa 0,0 l/m 5,7 km/h (2 Bft) S-SO 162 0 min 0 W/m 4,2 C 6,4 C 8,0 km/h (2 Bft)
29.04.2016 21:42 6,4 C 86 % 1013,7 hPa 0,0 l/m 5,3 km/h (1 Bft) SO 143 0 min 0 W/m 4,2 C 6,4 C 9,7 km/h (2 Bft)
29.04.2016 21:45 6,4 C 86 % 1013,7 hPa 0,0 l/m 5,0 km/h (1 Bft) S-SO 147 0 min 0 W/m 4,2 C 6,4 C 9,7 km/h (2 Bft)
29.04.2016 21:48 6,4 C 86 % 1013,7 hPa 0,0 l/m 4,2 km/h (1 Bft) S-SO 151 0 min 0 W/m 4,2 C 6,4 C 11,3 km/h (2 Bft)
29.04.2016 21:51 6,4 C 86 % 1013,7 hPa 0,0 l/m 5,1 km/h (1 Bft) SO 146 0 min 0 W/m 4,2 C 6,4 C 9,7 km/h (2 Bft)
29.04.2016 21:54 6,4 C 85 % 1013,7 hPa 0,0 l/m 4,5 km/h (1 Bft) SO 146 0 min 0 W/m 4,1 C 6,4 C 9,7 km/h (2 Bft)
29.04.2016 21:57 6,4 C 85 % 1013,6 hPa 0,0 l/m 4,1 km/h (1 Bft) SO 135 0 min 0 W/m 4,1 C 6,4 C 6,4 km/h (2 Bft)
29.04.2016 22:00 6,4 C 86 % 1013,7 hPa 0,0 l/m 3,5 km/h (1 Bft) SO 134 0 min 0 W/m 4,2 C 6,4 C 4,8 km/h (1 Bft)
29.04.2016 22:03 6,3 C 86 % 1013,7 hPa 0,0 l/m 4,5 km/h (1 Bft) S-SO 159 0 min 0 W/m 4,1 C 6,3 C 8,0 km/h (2 Bft)
29.04.2016 22:06 6,3 C 86 % 1013,7 hPa 0,0 l/m 5,2 km/h (1 Bft) S-SO 161 0 min 0 W/m 4,1 C 6,3 C 9,7 km/h (2 Bft)
29.04.2016 22:09 6,3 C 86 % 1013,7 hPa 0,0 l/m 4,3 km/h (1 Bft) S-SO 165 0 min 0 W/m 4,1 C 6,3 C 6,4 km/h (2 Bft)
29.04.2016 22:12 6,2 C 87 % 1013,7 hPa 0,0 l/m 5,5 km/h (2 Bft) SO 134 0 min 0 W/m 4,2 C 6,2 C 8,0 km/h (2 Bft)
29.04.2016 22:15 6,2 C 87 % 1013,7 hPa 0,0 l/m 5,1 km/h (1 Bft) O-SO 103 0 min 0 W/m 4,2 C 6,2 C 9,7 km/h (2 Bft)
29.04.2016 22:18 6,2 C 87 % 1013,7 hPa 0,0 l/m 6,0 km/h (2 Bft) SO 126 0 min 0 W/m 4,2 C 6,2 C 11,3 km/h (2 Bft)
29.04.2016 22:21 6,2 C 88 % 1013,7 hPa 0,0 l/m 5,8 km/h (2 Bft) S-SO 149 0 min 0 W/m 4,4 C 6,2 C 11,3 km/h (2 Bft)
29.04.2016 22:24 6,2 C 89 % 1013,6 hPa 0,0 l/m 7,8 km/h (2 Bft) S-SO 168 0 min 0 W/m 4,5 C 5,0 C 14,5 km/h (3 Bft)
29.04.2016 22:27 6,2 C 89 % 1013,6 hPa 0,0 l/m 7,3 km/h (2 Bft) SO 140 0 min 0 W/m 4,5 C 5,4 C 14,5 km/h (3 Bft)
29.04.2016 22:30 6,2 C 90 % 1013,6 hPa 0,0 l/m 8,0 km/h (2 Bft) S-SO 152 0 min 0 W/m 4,7 C 4,9 C 12,9 km/h (3 Bft)
29.04.2016 22:33 6,3 C 90 % 1013,6 hPa 0,0 l/m 7,3 km/h (2 Bft) S-SO 162 0 min 0 W/m 4,8 C 5,5 C 14,5 km/h (3 Bft)
29.04.2016 22:36 6,3 C 91 % 1013,5 hPa 0,0 l/m 7,7 km/h (2 Bft) SO 146 0 min 0 W/m 4,9 C 5,2 C 12,9 km/h (3 Bft)
29.04.2016 22:39 6,3 C 91 % 1013,4 hPa 0,0 l/m 7,6 km/h (2 Bft) S 183 0 min 0 W/m 4,9 C 5,3 C 17,7 km/h (3 Bft)
29.04.2016 22:42 6,3 C 91 % 1013,5 hPa 0,0 l/m 8,3 km/h (2 Bft) S-SO 156 0 min 0 W/m 4,9 C 4,7 C 14,5 km/h (3 Bft)
29.04.2016 22:45 6,3 C 92 % 1013,4 hPa 0,0 l/m 9,1 km/h (2 Bft) O 100 0 min 0 W/m 5,1 C 4,1 C 16,1 km/h (3 Bft)
29.04.2016 22:48 6,3 C 92 % 1013,4 hPa 0,0 l/m 8,6 km/h (2 Bft) S-SO 155 0 min 0 W/m 5,1 C 4,5 C 17,7 km/h (3 Bft)
29.04.2016 22:51 6,3 C 92 % 1013,3 hPa 0,0 l/m 9,0 km/h (2 Bft) S-SO 165 0 min 0 W/m 5,1 C 4,2 C 16,1 km/h (3 Bft)
29.04.2016 22:54 6,2 C 92 % 1013,3 hPa 0,0 l/m 6,7 km/h (2 Bft) SO 129 0 min 0 W/m 5,0 C 6,0 C 11,3 km/h (2 Bft)
29.04.2016 22:57 6,2 C 92 % 1013,3 hPa 0,0 l/m 6,9 km/h (2 Bft) S-SO 162 0 min 0 W/m 5,0 C 5,8 C 14,5 km/h (3 Bft)
29.04.2016 23:00 6,2 C 93 % 1013,3 hPa 0,0 l/m 7,8 km/h (2 Bft) SO 127 0 min 0 W/m 5,2 C 5,0 C 12,9 km/h (3 Bft)
29.04.2016 23:03 6,2 C 93 % 1013,3 hPa 0,0 l/m 7,8 km/h (2 Bft) S 173 0 min 0 W/m 5,2 C 5,0 C 16,1 km/h (3 Bft)
29.04.2016 23:06 6,2 C 93 % 1013,3 hPa 0,0 l/m 6,0 km/h (2 Bft) SO 133 0 min 0 W/m 5,2 C 6,2 C 14,5 km/h (3 Bft)
29.04.2016 23:09 6,1 C 93 % 1013,3 hPa 0,0 l/m 7,4 km/h (2 Bft) O-SO 114 0 min 0 W/m 5,1 C 5,3 C 12,9 km/h (3 Bft)
29.04.2016 23:12 6,1 C 93 % 1013,3 hPa 0,0 l/m 6,0 km/h (2 Bft) S-SO 165 0 min 0 W/m 5,1 C 6,1 C 11,3 km/h (2 Bft)
29.04.2016 23:15 6,1 C 93 % 1013,3 hPa 0,0 l/m 6,2 km/h (2 Bft) S-SO 147 0 min 0 W/m 5,1 C 6,1 C 11,3 km/h (2 Bft)
29.04.2016 23:18 6,1 C 93 % 1013,4 hPa 0,0 l/m 5,5 km/h (2 Bft) SO 128 0 min 0 W/m 5,1 C 6,1 C 11,3 km/h (2 Bft)
29.04.2016 23:21 6,0 C 93 % 1013,3 hPa 0,0 l/m 5,7 km/h (2 Bft) S-SW 195 0 min 0 W/m 5,0 C 6,0 C 9,7 km/h (2 Bft)
29.04.2016 23:24 6,0 C 93 % 1013,3 hPa 0,0 l/m 5,3 km/h (1 Bft) S-SO 155 0 min 0 W/m 5,0 C 6,0 C 9,7 km/h (2 Bft)
29.04.2016 23:27 6,0 C 93 % 1013,3 hPa 0,0 l/m 5,3 km/h (1 Bft) SO 125 0 min 0 W/m 5,0 C 6,0 C 9,7 km/h (2 Bft)
29.04.2016 23:30 6,0 C 93 % 1013,3 hPa 0,0 l/m 6,2 km/h (2 Bft) SO 136 0 min 0 W/m 5,0 C 6,0 C 12,9 km/h (3 Bft)
29.04.2016 23:33 6,0 C 93 % 1013,3 hPa 0,0 l/m 6,0 km/h (2 Bft) O-SO 113 0 min 0 W/m 5,0 C 6,0 C 12,9 km/h (3 Bft)
29.04.2016 23:36 6,0 C 93 % 1013,3 hPa 0,0 l/m 6,6 km/h (2 Bft) S 188 0 min 0 W/m 5,0 C 5,9 C 11,3 km/h (2 Bft)
29.04.2016 23:39 6,1 C 93 % 1013,3 hPa 0,0 l/m 6,6 km/h (2 Bft) SO 137 0 min 0 W/m 5,1 C 6,0 C 11,3 km/h (2 Bft)
29.04.2016 23:42 6,1 C 93 % 1013,3 hPa 0,0 l/m 7,8 km/h (2 Bft) SO 143 0 min 0 W/m 5,1 C 4,9 C 12,9 km/h (3 Bft)
29.04.2016 23:45 6,1 C 93 % 1013,3 hPa 0,0 l/m 7,4 km/h (2 Bft) S-SO 152 0 min 0 W/m 5,1 C 5,3 C 12,9 km/h (3 Bft)
29.04.2016 23:48 6,1 C 93 % 1013,3 hPa 0,0 l/m 7,0 km/h (2 Bft) SO 144 0 min 0 W/m 5,1 C 5,6 C 11,3 km/h (2 Bft)
29.04.2016 23:51 6,1 C 93 % 1013,3 hPa 0,0 l/m 7,1 km/h (2 Bft) SO 134 0 min 0 W/m 5,1 C 5,5 C 12,9 km/h (3 Bft)
29.04.2016 23:54 6,1 C 93 % 1013,3 hPa 0,0 l/m 7,7 km/h (2 Bft) S 169 0 min 0 W/m 5,1 C 5,0 C 12,9 km/h (3 Bft)
29.04.2016 23:57 6,1 C 93 % 1013,3 hPa 0,0 l/m 6,7 km/h (2 Bft) O 94 0 min 0 W/m 5,1 C 5,9 C 14,5 km/h (3 Bft)
_ Min-Zeit 04:21 10:39 10:24 - 17:39 - - - - 04:21 06:30 17:39
Minimum _ 1,9 C 68 % 1009,4 hPa - 2,5 km/h (1 Bft) - - - - 1,0 C -2,3 C 4,8 km/h (1 Bft)
_ Max-Zeit 10:36 04:33 21:33 15:12 10:39 - - 10:27 10:30 16:36 17:12 10:54
Maximum _ 9,9 C 95 % 1013,8 hPa 0,4 l/m 21,7 km/h
S (4 Bft)
- - 3 min 394 W/m 7,1 C 8,9 C 40,2 km/h
S (6 Bft)
Durchschnitt _ 6,0 C 87 % 1011,6 hPa #2,6 l/m 9,3 km/h (2 Bft) S - #9 min. 87 W/m 4,0 C 3,8 C 16,6 km/h (3 Bft)
2016 Cux-Wetter.de -Die Nutzung der Wetterdaten nur mit ausdrcklicher Genehmigung